Time,TemperatureF,DewpointF,PressureIn,WindDirection,WindDirectionDegrees,WindSpeedMPH,WindSpeedGustMPH,Humidity,HourlyPrecipIn,Conditions,Clouds,dailyrainin,SoftwareType,DateUTC
2013-02-22 00:02:00,8.4,5.6,30.04,NNE,12,1.0,3.0,88,0.00,,,0.00,Wunderground v.1.15,2013-02-22 07:02:00,
2013-02-22 00:03:00,8.2,5.1,30.04,North,6,1.0,3.0,87,0.00,,,0.00,Wunderground v.1.15,2013-02-22 07:03:00,
2013-02-22 00:06:00,7.8,4.5,30.04,NNE,27,1.0,3.0,86,0.00,,,0.00,Wunderground v.1.15,2013-02-22 07:06:00,
2013-02-22 00:10:00,7.3,4.0,30.04,NNE,27,1.0,1.0,86,0.00,,,0.00,Wunderground v.1.15,2013-02-22 07:10:00,
2013-02-22 00:12:00,7.2,3.9,30.04,NNE,27,1.0,1.0,86,0.00,,,0.00,Wunderground v.1.15,2013-02-22 07:12:00,
2013-02-22 00:13:00,7.2,4.1,30.04,NNW,345,1.0,2.0,87,0.00,,,0.00,Wunderground v.1.15,2013-02-22 07:13:00,
2013-02-22 00:14:00,7.4,4.6,30.03,WNW,293,1.0,2.0,88,0.00,,,0.00,Wunderground v.1.15,2013-02-22 07:14:00,
2013-02-22 00:18:00,8.5,5.9,30.04,WSW,246,1.0,2.0,89,0.00,,,0.00,Wunderground v.1.15,2013-02-22 07:18:00,
2013-02-22 00:20:00,9.6,7.3,30.03,SW,231,1.0,3.0,90,0.00,,,0.00,Wunderground v.1.15,2013-02-22 07:20:00,
2013-02-22 00:21:00,10.5,8.1,30.03,WSW,246,1.0,4.0,90,0.00,,,0.00,Wunderground v.1.15,2013-02-22 07:21:00,
2013-02-22 00:23:00,12.3,9.2,30.03,West,259,2.0,6.0,87,0.00,,,0.00,Wunderground v.1.15,2013-02-22 07:23:00,
2013-02-22 00:24:00,13.2,9.8,30.03,WNW,284,2.0,6.0,86,0.00,,,0.00,Wunderground v.1.15,2013-02-22 07:24:00,
2013-02-22 00:27:00,15.5,10.7,30.04,SW,229,3.0,6.0,81,0.00,,,0.00,Wunderground v.1.15,2013-02-22 07:27:00,
2013-02-22 00:29:00,16.5,10.8,30.03,WSW,243,4.0,6.0,78,0.00,,,0.00,Wunderground v.1.15,2013-02-22 07:29:00,
2013-02-22 00:30:00,17.0,10.4,30.03,West,278,4.0,5.0,75,0.00,,,0.00,Wunderground v.1.15,2013-02-22 07:30:00,
2013-02-22 00:31:00,17.4,10.5,30.03,WSW,253,5.0,5.0,74,0.00,,,0.00,Wunderground v.1.15,2013-02-22 07:31:00,
2013-02-22 00:35:00,18.7,10.5,30.03,SW,235,5.0,9.0,70,0.00,,,0.00,Wunderground v.1.15,2013-02-22 07:35:00,
2013-02-22 00:36:00,19.0,10.2,30.03,West,263,5.0,9.0,68,0.00,,,0.00,Wunderground v.1.15,2013-02-22 07:36:00,
2013-02-22 00:38:00,19.6,10.4,30.03,West,271,7.0,12.0,67,0.00,,,0.00,Wunderground v.1.15,2013-02-22 07:38:00,
2013-02-22 00:42:00,20.2,10.0,30.03,SW,232,8.0,8.0,64,0.00,,,0.00,Wunderground v.1.15,2013-02-22 07:42:00,
2013-02-22 00:43:00,20.2,10.0,30.03,WNW,282,8.0,10.0,64,0.00,,,0.00,Wunderground v.1.15,2013-02-22 07:43:00,
2013-02-22 00:44:00,20.3,10.1,30.03,WNW,290,8.0,10.0,64,0.00,,,0.00,Wunderground v.1.15,2013-02-22 07:44:00,
2013-02-22 00:48:00,20.7,9.7,30.03,WSW,253,8.0,12.0,62,0.00,,,0.00,Wunderground v.1.15,2013-02-22 07:48:00,
2013-02-22 00:50:00,21.0,9.3,30.03,SW,232,8.0,8.0,60,0.00,,,0.00,Wunderground v.1.15,2013-02-22 07:50:00,
2013-02-22 00:51:00,21.0,9.3,30.03,West,277,9.0,13.0,60,0.00,,,0.00,Wunderground v.1.15,2013-02-22 07:51:00,
2013-02-22 00:53:00,21.1,9.4,30.03,WSW,250,9.0,13.0,60,0.00,,,0.00,Wunderground v.1.15,2013-02-22 07:53:00,
2013-02-22 00:59:00,21.0,9.3,30.03,SW,236,9.0,13.0,60,0.00,,,0.00,Wunderground v.1.15,2013-02-22 07:59:00,
2013-02-22 01:00:00,21.0,8.9,30.03,WSW,248,8.0,8.0,59,0.00,,,0.00,Wunderground v.1.15,2013-02-22 08:00:00,
2013-02-22 01:04:00,21.2,8.7,30.03,WSW,249,7.0,8.0,58,0.00,,,0.00,Wunderground v.1.15,2013-02-22 08:04:00,
2013-02-22 01:08:00,21.3,8.8,30.03,WSW,248,5.0,8.0,58,0.00,,,0.00,Wunderground v.1.15,2013-02-22 08:08:00,
2013-02-22 01:09:00,21.3,8.8,30.03,West,259,5.0,8.0,58,0.00,,,0.00,Wunderground v.1.15,2013-02-22 08:09:00,
2013-02-22 01:10:00,21.3,8.4,30.03,West,276,5.0,7.0,57,0.00,,,0.00,Wunderground v.1.15,2013-02-22 08:10:00,
2013-02-22 01:11:00,21.4,8.5,30.03,West,281,5.0,9.0,57,0.00,,,0.00,Wunderground v.1.15,2013-02-22 08:11:00,
2013-02-22 01:15:00,21.4,8.5,30.03,SW,222,5.0,9.0,57,0.00,,,0.00,Wunderground v.1.15,2013-02-22 08:15:00,
2013-02-22 01:17:00,21.5,8.6,30.02,West,279,5.0,9.0,57,0.00,,,0.00,Wunderground v.1.15,2013-02-22 08:17:00,
2013-02-22 01:18:00,21.5,8.6,30.02,SE,134,5.0,9.0,57,0.00,,,0.00,Wunderground v.1.15,2013-02-22 08:18:00,
2013-02-22 01:22:00,21.4,8.1,30.02,WNW,294,5.0,7.0,56,0.00,,,0.00,Wunderground v.1.15,2013-02-22 08:22:00,
2013-02-22 01:23:00,21.5,8.2,30.03,WSW,255,5.0,7.0,56,0.00,,,0.00,Wunderground v.1.15,2013-02-22 08:23:00,
2013-02-22 01:25:00,21.5,8.2,30.03,WSW,257,5.0,7.0,56,0.00,,,0.00,Wunderground v.1.15,2013-02-22 08:25:00,
2013-02-22 01:27:00,21.6,7.9,30.03,SW,231,5.0,8.0,55,0.00,,,0.00,Wunderground v.1.15,2013-02-22 08:27:00,
2013-02-22 01:29:00,21.7,8.0,30.03,WSW,256,5.0,9.0,55,0.00,,,0.00,Wunderground v.1.15,2013-02-22 08:29:00,
2013-02-22 01:33:00,21.8,8.1,30.03,West,264,5.0,5.0,55,0.00,,,0.00,Wunderground v.1.15,2013-02-22 08:33:00,
2013-02-22 01:36:00,21.7,8.0,30.03,SW,222,5.0,10.0,55,0.00,,,0.00,Wunderground v.1.15,2013-02-22 08:36:00,
2013-02-22 01:37:00,21.7,8.0,30.03,West,259,5.0,10.0,55,0.00,,,0.00,Wunderground v.1.15,2013-02-22 08:37:00,
2013-02-22 01:39:00,21.6,7.9,30.03,SW,228,6.0,10.0,55,0.00,,,0.00,Wunderground v.1.15,2013-02-22 08:39:00,
2013-02-22 01:41:00,21.6,7.9,30.03,West,269,6.0,7.0,55,0.00,,,0.00,Wunderground v.1.15,2013-02-22 08:41:00,
2013-02-22 01:42:00,21.6,7.5,30.03,West,269,6.0,8.0,54,0.00,,,0.00,Wunderground v.1.15,2013-02-22 08:42:00,
2013-02-22 01:45:00,21.6,7.5,30.03,West,279,8.0,12.0,54,0.00,,,0.00,Wunderground v.1.15,2013-02-22 08:45:00,
2013-02-22 01:47:00,21.6,7.5,30.03,WSW,257,8.0,12.0,54,0.00,,,0.00,Wunderground v.1.15,2013-02-22 08:47:00,
2013-02-22 01:49:00,21.6,7.5,30.03,WNW,282,7.0,12.0,54,0.00,,,0.00,Wunderground v.1.15,2013-02-22 08:49:00,
2013-02-22 01:50:00,21.6,7.5,30.03,West,259,7.0,7.0,54,0.00,,,0.00,Wunderground v.1.15,2013-02-22 08:50:00,
2013-02-22 01:52:00,21.6,7.5,30.03,SW,231,8.0,18.0,54,0.00,,,0.00,Wunderground v.1.15,2013-02-22 08:52:00,
2013-02-22 01:55:00,21.7,7.6,30.02,West,264,7.0,18.0,54,0.00,,,0.00,Wunderground v.1.15,2013-02-22 08:55:00,
2013-02-22 01:56:00,21.7,7.2,30.02,WSW,257,7.0,18.0,53,0.00,,,0.00,Wunderground v.1.15,2013-02-22 08:56:00,
2013-02-22 02:00:00,21.8,7.7,30.03,West,281,8.0,15.0,54,0.00,,,0.00,Wunderground v.1.15,2013-02-22 09:00:00,
2013-02-22 02:01:00,21.8,7.3,30.03,WSW,251,9.0,15.0,53,0.00,,,0.00,Wunderground v.1.15,2013-02-22 09:01:00,
2013-02-22 02:05:00,21.7,7.2,30.02,SW,227,9.0,15.0,53,0.00,,,0.00,Wunderground v.1.15,2013-02-22 09:05:00,
2013-02-22 02:06:00,21.7,7.2,30.02,WNW,290,9.0,15.0,53,0.00,,,0.00,Wunderground v.1.15,2013-02-22 09:06:00,
2013-02-22 02:11:00,21.6,7.1,30.02,WSW,246,9.0,14.0,53,0.00,,,0.00,Wunderground v.1.15,2013-02-22 09:11:00,
2013-02-22 02:12:00,21.5,7.0,30.02,West,260,8.0,14.0,53,0.00,,,0.00,Wunderground v.1.15,2013-02-22 09:12:00,
2013-02-22 02:18:00,21.3,7.2,30.02,West,273,9.0,14.0,54,0.00,,,0.00,Wunderground v.1.15,2013-02-22 09:18:00,
2013-02-22 02:19:00,21.3,7.2,30.02,West,270,8.0,14.0,54,0.00,,,0.00,Wunderground v.1.15,2013-02-22 09:19:00,
2013-02-22 02:21:00,21.3,7.2,30.02,WNW,294,8.0,10.0,54,0.00,,,0.00,Wunderground v.1.15,2013-02-22 09:21:00,
2013-02-22 02:22:00,21.3,7.2,30.02,West,264,9.0,10.0,54,0.00,,,0.00,Wunderground v.1.15,2013-02-22 09:22:00,
2013-02-22 02:25:00,21.2,7.1,30.01,SW,236,9.0,13.0,54,0.00,,,0.00,Wunderground v.1.15,2013-02-22 09:25:00,
2013-02-22 02:27:00,21.2,7.1,30.01,West,276,9.0,13.0,54,0.00,,,0.00,Wunderground v.1.15,2013-02-22 09:27:00,
2013-02-22 02:28:00,21.2,7.5,30.01,WNW,297,9.0,13.0,55,0.00,,,0.00,Wunderground v.1.15,2013-02-22 09:28:00,
2013-02-22 02:30:00,21.3,7.2,30.01,SW,236,9.0,9.0,54,0.00,,,0.00,Wunderground v.1.15,2013-02-22 09:30:00,
2013-02-22 02:33:00,21.4,7.3,30.01,West,264,9.0,9.0,54,0.00,,,0.00,Wunderground v.1.15,2013-02-22 09:33:00,
2013-02-22 02:37:00,21.6,7.1,30.01,West,271,8.0,10.0,53,0.00,,,0.00,Wunderground v.1.15,2013-02-22 09:37:00,
2013-02-22 02:38:00,21.7,7.2,30.01,SW,217,8.0,12.0,53,0.00,,,0.00,Wunderground v.1.15,2013-02-22 09:38:00,
2013-02-22 02:40:00,21.8,6.8,30.01,West,274,9.0,17.0,52,0.00,,,0.00,Wunderground v.1.15,2013-02-22 09:40:00,
2013-02-22 02:44:00,21.9,6.9,30.01,WSW,253,10.0,17.0,52,0.00,,,0.00,Wunderground v.1.15,2013-02-22 09:44:00,
2013-02-22 02:47:00,21.9,6.9,30.00,WNW,298,9.0,17.0,52,0.00,,,0.00,Wunderground v.1.15,2013-02-22 09:47:00,
2013-02-22 02:50:00,21.9,6.9,30.00,WSW,256,8.0,9.0,52,0.00,,,0.00,Wunderground v.1.15,2013-02-22 09:50:00,
2013-02-22 02:51:00,21.9,6.9,30.00,SW,226,7.0,15.0,52,0.00,,,0.00,Wunderground v.1.15,2013-02-22 09:51:00,
2013-02-22 02:53:00,21.8,6.8,30.00,WSW,239,7.0,15.0,52,0.00,,,0.00,Wunderground v.1.15,2013-02-22 09:53:00,
2013-02-22 02:54:00,21.8,6.8,30.01,SW,228,7.0,15.0,52,0.00,,,0.00,Wunderground v.1.15,2013-02-22 09:54:00,
2013-02-22 02:58:00,21.7,6.8,30.00,SW,215,8.0,15.0,52,0.00,,,0.00,Wunderground v.1.15,2013-02-22 09:58:00,
2013-02-22 02:59:00,21.7,6.8,30.00,SW,236,8.0,15.0,52,0.00,,,0.00,Wunderground v.1.15,2013-02-22 09:59:00,
2013-02-22 03:01:00,21.7,6.8,30.00,SW,231,8.0,8.0,52,0.00,,,0.00,Wunderground v.1.15,2013-02-22 10:01:00,
2013-02-22 03:05:00,21.7,6.3,30.00,WSW,252,9.0,15.0,51,0.00,,,0.00,Wunderground v.1.15,2013-02-22 10:05:00,
2013-02-22 03:06:00,21.6,6.7,30.00,West,272,9.0,15.0,52,0.00,,,0.00,Wunderground v.1.15,2013-02-22 10:06:00,
2013-02-22 03:08:00,21.5,6.1,30.00,West,262,9.0,15.0,51,0.00,,,0.00,Wunderground v.1.15,2013-02-22 10:08:00,
2013-02-22 03:10:00,21.5,6.6,30.00,SW,236,10.0,11.0,52,0.00,,,0.00,Wunderground v.1.15,2013-02-22 10:10:00,
2013-02-22 03:14:00,21.4,6.5,30.00,WSW,240,11.0,15.0,52,0.00,,,0.00,Wunderground v.1.15,2013-02-22 10:14:00,
2013-02-22 03:15:00,21.3,6.4,30.00,WSW,256,11.0,15.0,52,0.00,,,0.00,Wunderground v.1.15,2013-02-22 10:15:00,
2013-02-22 03:20:00,21.1,6.2,30.00,WNW,293,13.0,13.0,52,0.00,,,0.00,Wunderground v.1.15,2013-02-22 10:20:00,
2013-02-22 03:22:00,21.0,6.1,30.00,West,267,13.0,13.0,52,0.00,,,0.00,Wunderground v.1.15,2013-02-22 10:22:00,
2013-02-22 03:24:00,20.9,6.0,29.99,WSW,248,13.0,14.0,52,0.00,,,0.00,Wunderground v.1.15,2013-02-22 10:24:00,
2013-02-22 03:28:00,20.8,5.9,29.99,WSW,246,13.0,16.0,52,0.00,,,0.00,Wunderground v.1.15,2013-02-22 10:28:00,
2013-02-22 03:30:00,20.8,6.3,29.99,WSW,251,12.0,12.0,53,0.00,,,0.00,Wunderground v.1.15,2013-02-22 10:30:00,
2013-02-22 03:34:00,20.6,6.2,29.99,WSW,249,12.0,13.0,53,0.00,,,0.00,Wunderground v.1.15,2013-02-22 10:34:00,
2013-02-22 03:37:00,20.8,5.9,29.99,SW,219,12.0,18.0,52,0.00,,,0.00,Wunderground v.1.15,2013-02-22 10:37:00,
2013-02-22 03:39:00,20.8,5.9,29.99,SW,223,13.0,18.0,52,0.00,,,0.00,Wunderground v.1.15,2013-02-22 10:39:00,
2013-02-22 03:41:00,20.8,5.9,29.99,West,272,14.0,16.0,52,0.00,,,0.00,Wunderground v.1.15,2013-02-22 10:41:00,
2013-02-22 03:46:00,20.7,5.8,30.00,SW,223,14.0,16.0,52,0.00,,,0.00,Wunderground v.1.15,2013-02-22 10:46:00,
2013-02-22 03:47:00,20.7,5.8,30.00,SW,222,13.0,16.0,52,0.00,,,0.00,Wunderground v.1.15,2013-02-22 10:47:00,
2013-02-22 03:51:00,20.8,5.9,30.00,WSW,253,11.0,11.0,52,0.00,,,0.00,Wunderground v.1.15,2013-02-22 10:51:00,
2013-02-22 03:53:00,20.8,5.9,30.00,WSW,256,9.0,14.0,52,0.00,,,0.00,Wunderground v.1.15,2013-02-22 10:53:00,
2013-02-22 03:57:00,20.9,5.6,30.00,SW,221,9.0,14.0,51,0.00,,,0.00,Wunderground v.1.15,2013-02-22 10:57:00,
2013-02-22 04:02:00,21.0,6.1,30.00,WSW,255,9.0,14.0,52,0.00,,,0.00,Wunderground v.1.15,2013-02-22 11:02:00,
2013-02-22 04:03:00,20.9,5.6,30.00,West,278,10.0,14.0,51,0.00,,,0.00,Wunderground v.1.15,2013-02-22 11:03:00,
2013-02-22 04:05:00,20.9,5.6,30.00,WSW,253,10.0,14.0,51,0.00,,,0.00,Wunderground v.1.15,2013-02-22 11:05:00,
2013-02-22 04:09:00,20.8,5.5,30.01,West,267,10.0,15.0,51,0.00,,,0.00,Wunderground v.1.15,2013-02-22 11:09:00,
2013-02-22 04:14:00,20.8,5.9,30.01,SW,218,10.0,12.0,52,0.00,,,0.00,Wunderground v.1.15,2013-02-22 11:14:00,
2013-02-22 04:17:00,20.7,5.4,30.01,SW,236,9.0,12.0,51,0.00,,,0.00,Wunderground v.1.15,2013-02-22 11:17:00,
2013-02-22 04:18:00,20.7,5.8,30.01,WSW,240,9.0,12.0,52,0.00,,,0.00,Wunderground v.1.15,2013-02-22 11:18:00,
2013-02-22 04:23:00,20.7,5.4,30.01,SSW,207,10.0,10.0,51,0.00,,,0.00,Wunderground v.1.15,2013-02-22 11:23:00,
2013-02-22 04:24:00,20.7,5.8,30.01,SW,236,10.0,10.0,52,0.00,,,0.00,Wunderground v.1.15,2013-02-22 11:24:00,
2013-02-22 04:25:00,20.7,5.8,30.01,WSW,246,10.0,10.0,52,0.00,,,0.00,Wunderground v.1.15,2013-02-22 11:25:00,
2013-02-22 04:30:00,20.6,5.7,30.01,WSW,253,9.0,9.0,52,0.00,,,0.00,Wunderground v.1.15,2013-02-22 11:30:00,
2013-02-22 04:31:00,20.6,5.7,30.01,SSW,212,9.0,9.0,52,0.00,,,0.00,Wunderground v.1.15,2013-02-22 11:31:00,
2013-02-22 04:33:00,20.6,5.7,30.01,West,262,9.0,14.0,52,0.00,,,0.00,Wunderground v.1.15,2013-02-22 11:33:00,
2013-02-22 04:39:00,20.7,5.4,30.01,SW,236,8.0,14.0,51,0.00,,,0.00,Wunderground v.1.15,2013-02-22 11:39:00,
2013-02-22 04:40:00,20.7,5.4,30.01,West,263,8.0,13.0,51,0.00,,,0.00,Wunderground v.1.15,2013-02-22 11:40:00,
2013-02-22 04:41:00,20.7,5.4,30.01,WSW,240,8.0,13.0,51,0.00,,,0.00,Wunderground v.1.15,2013-02-22 11:41:00,
2013-02-22 04:45:00,20.7,5.4,30.02,SSW,212,7.0,13.0,51,0.00,,,0.00,Wunderground v.1.15,2013-02-22 11:45:00,
2013-02-22 04:46:00,20.7,5.4,30.01,SW,229,7.0,13.0,51,0.00,,,0.00,Wunderground v.1.15,2013-02-22 11:46:00,
2013-02-22 04:48:00,20.6,5.7,30.01,West,270,7.0,13.0,52,0.00,,,0.00,Wunderground v.1.15,2013-02-22 11:48:00,
2013-02-22 04:53:00,20.7,5.4,30.01,SW,215,7.0,13.0,51,0.00,,,0.00,Wunderground v.1.15,2013-02-22 11:53:00,
2013-02-22 04:55:00,20.8,5.1,30.02,SSW,203,7.0,13.0,50,0.00,,,0.00,Wunderground v.1.15,2013-02-22 11:55:00,
2013-02-22 04:57:00,20.8,5.5,30.02,SW,236,8.0,13.0,51,0.00,,,0.00,Wunderground v.1.15,2013-02-22 11:57:00,
2013-02-22 05:01:00,20.7,5.4,30.02,WSW,252,9.0,9.0,51,0.00,,,0.00,Wunderground v.1.15,2013-02-22 12:01:00,
2013-02-22 05:07:00,20.8,5.5,30.02,WSW,243,8.0,11.0,51,0.00,,,0.00,Wunderground v.1.15,2013-02-22 12:07:00,
2013-02-22 05:09:00,20.8,5.1,30.02,West,269,8.0,11.0,50,0.00,,,0.00,Wunderground v.1.15,2013-02-22 12:09:00,
2013-02-22 05:10:00,20.8,5.5,30.02,SW,228,8.0,8.0,51,0.00,,,0.00,Wunderground v.1.15,2013-02-22 12:10:00,
2013-02-22 05:11:00,20.8,5.5,30.02,SW,229,8.0,9.0,51,0.00,,,0.00,Wunderground v.1.15,2013-02-22 12:11:00,
2013-02-22 05:16:00,20.8,5.1,30.02,SW,222,8.0,13.0,50,0.00,,,0.00,Wunderground v.1.15,2013-02-22 12:16:00,
2013-02-22 05:17:00,20.8,5.1,30.02,West,274,8.0,13.0,50,0.00,,,0.00,Wunderground v.1.15,2013-02-22 12:17:00,
2013-02-22 05:21:00,20.8,5.1,30.02,West,278,8.0,10.0,50,0.00,,,0.00,Wunderground v.1.15,2013-02-22 12:21:00,
2013-02-22 05:27:00,20.9,5.2,30.02,WNW,291,8.0,10.0,50,0.00,,,0.00,Wunderground v.1.15,2013-02-22 12:27:00,
2013-02-22 05:30:00,20.8,5.1,30.02,SW,232,8.0,8.0,50,0.00,,,0.00,Wunderground v.1.15,2013-02-22 12:30:00,
2013-02-22 05:32:00,20.8,5.5,30.02,SW,231,8.0,8.0,51,0.00,,,0.00,Wunderground v.1.15,2013-02-22 12:32:00,
2013-02-22 05:34:00,20.7,5.4,30.02,WSW,253,8.0,8.0,51,0.00,,,0.00,Wunderground v.1.15,2013-02-22 12:34:00,
2013-02-22 05:38:00,20.7,5.0,30.02,SW,228,8.0,11.0,50,0.00,,,0.00,Wunderground v.1.15,2013-02-22 12:38:00,
2013-02-22 05:39:00,20.7,5.0,30.02,SW,231,8.0,11.0,50,0.00,,,0.00,Wunderground v.1.15,2013-02-22 12:39:00,
2013-02-22 05:41:00,20.7,5.0,30.02,West,278,8.0,12.0,50,0.00,,,0.00,Wunderground v.1.15,2013-02-22 12:41:00,
2013-02-22 05:44:00,20.7,5.0,30.02,SW,219,9.0,12.0,50,0.00,,,0.00,Wunderground v.1.15,2013-02-22 12:44:00,
2013-02-22 05:45:00,20.7,5.0,30.02,SW,231,9.0,12.0,50,0.00,,,0.00,Wunderground v.1.15,2013-02-22 12:45:00,
2013-02-22 05:47:00,20.7,5.0,30.02,SW,233,9.0,12.0,50,0.00,,,0.00,Wunderground v.1.15,2013-02-22 12:47:00,
2013-02-22 05:48:00,20.7,5.0,30.02,SW,226,9.0,12.0,50,0.00,,,0.00,Wunderground v.1.15,2013-02-22 12:48:00,
2013-02-22 05:51:00,20.8,4.6,30.02,SSW,205,9.0,16.0,49,0.00,,,0.00,Wunderground v.1.15,2013-02-22 12:51:00,
2013-02-22 05:53:00,20.9,4.7,30.02,West,267,9.0,16.0,49,0.00,,,0.00,Wunderground v.1.15,2013-02-22 12:53:00,
2013-02-22 05:57:00,20.9,4.7,30.02,SW,236,9.0,16.0,49,0.00,,,0.00,Wunderground v.1.15,2013-02-22 12:57:00,
2013-02-22 05:58:00,20.9,4.7,30.02,WSW,256,8.0,16.0,49,0.00,,,0.00,Wunderground v.1.15,2013-02-22 12:58:00,
2013-02-22 06:00:00,20.9,4.7,30.03,SW,224,9.0,9.0,49,0.00,,,0.00,Wunderground v.1.15,2013-02-22 13:00:00,
2013-02-22 06:03:00,20.8,4.6,30.02,SW,222,8.0,9.0,49,0.00,,,0.00,Wunderground v.1.15,2013-02-22 13:03:00,
2013-02-22 06:05:00,20.7,4.5,30.03,West,278,9.0,15.0,49,0.00,,,0.00,Wunderground v.1.15,2013-02-22 13:05:00,
2013-02-22 06:06:00,20.6,4.4,30.03,WSW,243,9.0,15.0,49,0.00,,,0.00,Wunderground v.1.15,2013-02-22 13:06:00,
2013-02-22 06:11:00,20.4,4.7,30.03,SW,231,10.0,11.0,50,0.00,,,0.00,Wunderground v.1.15,2013-02-22 13:11:00,
2013-02-22 06:12:00,20.4,4.7,30.03,SW,231,10.0,11.0,50,0.00,,,0.00,Wunderground v.1.15,2013-02-22 13:12:00,
2013-02-22 06:13:00,20.3,4.6,30.03,WSW,246,10.0,11.0,50,0.00,,,0.00,Wunderground v.1.15,2013-02-22 13:13:00,
2013-02-22 06:16:00,20.3,4.6,30.03,SW,233,10.0,13.0,50,0.00,,,0.00,Wunderground v.1.15,2013-02-22 13:16:00,
2013-02-22 06:19:00,20.3,4.6,30.02,WSW,243,9.0,16.0,50,0.00,,,0.00,Wunderground v.1.15,2013-02-22 13:19:00,
2013-02-22 06:21:00,20.3,4.6,30.02,West,262,10.0,10.0,50,0.00,,,0.00,Wunderground v.1.15,2013-02-22 13:21:00,
2013-02-22 06:23:00,20.2,4.5,30.02,SSW,207,10.0,13.0,50,0.00,,,0.00,Wunderground v.1.15,2013-02-22 13:23:00,
2013-02-22 06:25:00,20.2,4.5,30.02,WSW,246,11.0,15.0,50,0.00,,,0.00,Wunderground v.1.15,2013-02-22 13:25:00,
2013-02-22 06:29:00,20.1,4.4,30.03,West,270,11.0,15.0,50,0.00,,,0.00,Wunderground v.1.15,2013-02-22 13:29:00,
2013-02-22 06:31:00,20.0,4.7,30.03,SW,230,10.0,10.0,51,0.00,,,0.00,Wunderground v.1.15,2013-02-22 13:31:00,
2013-02-22 06:35:00,20.1,4.4,30.03,WSW,246,10.0,10.0,50,0.00,,,0.00,Wunderground v.1.15,2013-02-22 13:35:00,
2013-02-22 06:36:00,20.1,4.4,30.03,WSW,253,10.0,10.0,50,0.00,,,0.00,Wunderground v.1.15,2013-02-22 13:36:00,
2013-02-22 06:39:00,20.1,4.0,30.03,SW,236,9.0,11.0,49,0.00,,,0.00,Wunderground v.1.15,2013-02-22 13:39:00,
2013-02-22 06:41:00,20.2,4.1,30.03,SW,223,10.0,12.0,49,0.00,,,0.00,Wunderground v.1.15,2013-02-22 13:41:00,
2013-02-22 06:42:00,20.2,4.1,30.02,SW,226,11.0,12.0,49,0.00,,,0.00,Wunderground v.1.15,2013-02-22 13:42:00,
2013-02-22 06:46:00,20.1,4.0,30.03,SW,235,10.0,14.0,49,0.00,,,0.00,Wunderground v.1.15,2013-02-22 13:46:00,
2013-02-22 06:49:00,20.1,4.0,30.03,WSW,256,10.0,14.0,49,0.00,,,0.00,Wunderground v.1.15,2013-02-22 13:49:00,
2013-02-22 06:51:00,20.1,4.0,30.03,West,275,10.0,10.0,49,0.00,,,0.00,Wunderground v.1.15,2013-02-22 13:51:00,
2013-02-22 06:52:00,20.1,4.0,30.03,WSW,251,10.0,18.0,49,0.00,,,0.00,Wunderground v.1.15,2013-02-22 13:52:00,
2013-02-22 06:58:00,20.2,3.6,30.03,WNW,287,9.0,18.0,48,0.00,,,0.00,Wunderground v.1.15,2013-02-22 13:58:00,
2013-02-22 07:00:00,20.3,3.2,30.03,WSW,240,9.0,9.0,47,0.00,,,0.00,Wunderground v.1.15,2013-02-22 14:00:00,
2013-02-22 07:03:00,20.4,3.3,30.03,WSW,249,9.0,9.0,47,0.00,,,0.00,Wunderground v.1.15,2013-02-22 14:03:00,
2013-02-22 07:05:00,20.4,3.3,30.03,SW,228,9.0,11.0,47,0.00,,,0.00,Wunderground v.1.15,2013-02-22 14:05:00,
2013-02-22 07:06:00,20.4,3.3,30.03,WSW,240,10.0,11.0,47,0.00,,,0.00,Wunderground v.1.15,2013-02-22 14:06:00,
2013-02-22 07:09:00,20.4,3.3,30.03,SSW,210,10.0,19.0,47,0.00,,,0.00,Wunderground v.1.15,2013-02-22 14:09:00,
2013-02-22 07:13:00,20.4,3.3,30.04,SW,224,11.0,14.0,47,0.00,,,0.00,Wunderground v.1.15,2013-02-22 14:13:00,
2013-02-22 07:15:00,20.4,3.3,30.04,WSW,240,11.0,14.0,47,0.00,,,0.00,Wunderground v.1.15,2013-02-22 14:15:00,
2013-02-22 07:16:00,20.5,3.4,30.04,SW,228,11.0,14.0,47,0.00,,,0.00,Wunderground v.1.15,2013-02-22 14:16:00,
2013-02-22 07:17:00,20.5,3.4,30.04,SW,233,11.0,14.0,47,0.00,,,0.00,Wunderground v.1.15,2013-02-22 14:17:00,
2013-02-22 07:20:00,20.4,3.3,30.04,WSW,243,10.0,11.0,47,0.00,,,0.00,Wunderground v.1.15,2013-02-22 14:20:00,
2013-02-22 07:21:00,20.4,3.3,30.04,SW,222,10.0,13.0,47,0.00,,,0.00,Wunderground v.1.15,2013-02-22 14:21:00,
2013-02-22 07:23:00,20.4,3.3,30.04,SW,225,10.0,13.0,47,0.00,,,0.00,Wunderground v.1.15,2013-02-22 14:23:00,
2013-02-22 07:26:00,20.3,3.2,30.04,West,261,10.0,13.0,47,0.00,,,0.00,Wunderground v.1.15,2013-02-22 14:26:00,
2013-02-22 07:29:00,20.3,3.2,30.05,WSW,246,9.0,13.0,47,0.00,,,0.00,Wunderground v.1.15,2013-02-22 14:29:00,
2013-02-22 07:30:00,20.3,3.2,30.05,SW,218,9.0,9.0,47,0.00,,,0.00,Wunderground v.1.15,2013-02-22 14:30:00,
2013-02-22 07:36:00,20.4,3.3,30.05,WSW,255,8.0,13.0,47,0.00,,,0.00,Wunderground v.1.15,2013-02-22 14:36:00,
2013-02-22 07:37:00,20.5,3.4,30.05,WSW,255,8.0,13.0,47,0.00,,,0.00,Wunderground v.1.15,2013-02-22 14:37:00,
2013-02-22 07:40:00,20.5,3.4,30.05,West,278,8.0,8.0,47,0.00,,,0.00,Wunderground v.1.15,2013-02-22 14:40:00,
2013-02-22 07:41:00,20.6,3.5,30.05,West,277,8.0,8.0,47,0.00,,,0.00,Wunderground v.1.15,2013-02-22 14:41:00,
2013-02-22 07:42:00,20.7,3.2,30.05,SW,233,8.0,8.0,46,0.00,,,0.00,Wunderground v.1.15,2013-02-22 14:42:00,
2013-02-22 07:45:00,20.9,3.3,30.05,West,276,7.0,8.0,46,0.00,,,0.00,Wunderground v.1.15,2013-02-22 14:45:00,
2013-02-22 07:48:00,21.0,3.0,30.05,WNW,284,6.0,10.0,45,0.00,,,0.00,Wunderground v.1.15,2013-02-22 14:48:00,
2013-02-22 07:50:00,21.0,3.0,30.05,SW,236,6.0,6.0,45,0.00,,,0.00,Wunderground v.1.15,2013-02-22 14:50:00,
2013-02-22 07:52:00,21.0,3.0,30.05,SW,221,6.0,11.0,45,0.00,,,0.00,Wunderground v.1.15,2013-02-22 14:52:00,
2013-02-22 07:55:00,21.0,3.4,30.06,WNW,283,7.0,11.0,46,0.00,,,0.00,Wunderground v.1.15,2013-02-22 14:55:00,
2013-02-22 07:58:00,21.1,3.0,30.05,West,259,7.0,11.0,45,0.00,,,0.00,Wunderground v.1.15,2013-02-22 14:58:00,
2013-02-22 07:59:00,21.2,3.1,30.06,West,272,7.0,11.0,45,0.00,,,0.00,Wunderground v.1.15,2013-02-22 14:59:00,
2013-02-22 08:01:00,21.2,3.1,30.06,WSW,240,8.0,10.0,45,0.00,,,0.00,Wunderground v.1.15,2013-02-22 15:01:00,
2013-02-22 08:02:00,21.2,3.1,30.06,WSW,249,8.0,16.0,45,0.00,,,0.00,Wunderground v.1.15,2013-02-22 15:02:00,
2013-02-22 08:03:00,21.2,2.6,30.06,West,270,9.0,16.0,44,0.00,,,0.00,Wunderground v.1.15,2013-02-22 15:03:00,
2013-02-22 08:09:00,21.4,2.8,30.06,SW,236,9.0,16.0,44,0.00,,,0.00,Wunderground v.1.15,2013-02-22 15:09:00,
2013-02-22 08:10:00,21.4,2.8,30.06,WSW,240,9.0,9.0,44,0.00,,,0.00,Wunderground v.1.15,2013-02-22 15:10:00,
2013-02-22 08:16:00,21.6,3.0,30.06,WSW,240,8.0,10.0,44,0.00,,,0.00,Wunderground v.1.15,2013-02-22 15:16:00,
2013-02-22 08:17:00,21.6,3.0,30.06,WSW,256,8.0,10.0,44,0.00,,,0.00,Wunderground v.1.15,2013-02-22 15:17:00,
2013-02-22 08:18:00,21.6,3.0,30.06,WSW,256,8.0,10.0,44,0.00,,,0.00,Wunderground v.1.15,2013-02-22 15:18:00,
2013-02-22 08:22:00,21.6,2.5,30.06,SW,226,7.0,11.0,43,0.00,,,0.00,Wunderground v.1.15,2013-02-22 15:22:00,
2013-02-22 08:24:00,21.6,2.5,30.06,WSW,252,8.0,11.0,43,0.00,,,0.00,Wunderground v.1.15,2013-02-22 15:24:00,
2013-02-22 08:26:00,21.6,2.5,30.06,West,266,8.0,11.0,43,0.00,,,0.00,Wunderground v.1.15,2013-02-22 15:26:00,
2013-02-22 08:29:00,21.6,3.0,30.06,WSW,253,8.0,11.0,44,0.00,,,0.00,Wunderground v.1.15,2013-02-22 15:29:00,
2013-02-22 08:30:00,21.6,3.0,30.06,SW,232,7.0,7.0,44,0.00,,,0.00,Wunderground v.1.15,2013-02-22 15:30:00,
2013-02-22 08:36:00,21.8,3.2,30.06,WSW,253,6.0,8.0,44,0.00,,,0.00,Wunderground v.1.15,2013-02-22 15:36:00,
2013-02-22 08:37:00,21.9,3.3,30.07,West,269,5.0,8.0,44,0.00,,,0.00,Wunderground v.1.15,2013-02-22 15:37:00,
2013-02-22 08:42:00,22.1,3.0,30.06,West,269,4.0,5.0,43,0.00,,,0.00,Wunderground v.1.15,2013-02-22 15:42:00,
2013-02-22 08:44:00,22.3,3.2,30.07,West,274,4.0,5.0,43,0.00,,,0.00,Wunderground v.1.15,2013-02-22 15:44:00,
2013-02-22 08:46:00,22.4,3.2,30.07,ESE,107,3.0,5.0,43,0.00,,,0.00,Wunderground v.1.15,2013-02-22 15:46:00,
2013-02-22 08:47:00,22.4,3.2,30.07,SW,219,3.0,5.0,43,0.00,,,0.00,Wunderground v.1.15,2013-02-22 15:47:00,
2013-02-22 08:51:00,22.5,2.8,30.06,SSW,200,3.0,13.0,42,0.00,,,0.00,Wunderground v.1.15,2013-02-22 15:51:00,
2013-02-22 08:55:00,22.6,2.9,30.06,SSW,197,4.0,13.0,42,0.00,,,0.00,Wunderground v.1.15,2013-02-22 15:55:00,
2013-02-22 08:56:00,22.7,3.5,30.06,SW,231,4.0,13.0,43,0.00,,,0.00,Wunderground v.1.15,2013-02-22 15:56:00,
2013-02-22 08:57:00,22.7,3.0,30.06,South,186,4.0,13.0,42,0.00,,,0.00,Wunderground v.1.15,2013-02-22 15:57:00,
2013-02-22 08:58:00,22.8,4.1,30.06,SW,217,4.0,13.0,44,0.00,,,0.00,Wunderground v.1.15,2013-02-22 15:58:00,
2013-02-22 09:00:00,22.9,3.2,30.06,SW,214,4.0,4.0,42,0.00,,,0.00,Wunderground v.1.15,2013-02-22 16:00:00,
2013-02-22 09:05:00,23.4,3.1,30.06,WSW,243,4.0,7.0,41,0.00,,,0.00,Wunderground v.1.15,2013-02-22 16:05:00,
2013-02-22 09:07:00,23.5,3.2,30.06,SW,218,4.0,7.0,41,0.00,,,0.00,Wunderground v.1.15,2013-02-22 16:07:00,
2013-02-22 09:12:00,24.0,3.1,30.06,SSE,157,3.0,3.0,40,0.00,,,0.00,Wunderground v.1.15,2013-02-22 16:12:00,
2013-02-22 09:13:00,24.1,2.7,30.06,SSW,195,4.0,4.0,39,0.00,,,0.00,Wunderground v.1.15,2013-02-22 16:13:00,
2013-02-22 09:14:00,24.3,5.0,30.06,South,184,3.0,4.0,43,0.00,,,0.00,Wunderground v.1.15,2013-02-22 16:14:00,
2013-02-22 09:16:00,24.6,3.7,30.06,ESE,103,3.0,4.0,40,0.00,,,0.00,Wunderground v.1.15,2013-02-22 16:16:00,
2013-02-22 09:20:00,25.8,6.9,30.06,ESE,117,2.0,2.0,44,0.00,,,0.00,Wunderground v.1.15,2013-02-22 16:20:00,
2013-02-22 09:22:00,26.0,9.0,30.06,East,81,2.0,3.0,48,0.00,,,0.00,Wunderground v.1.15,2013-02-22 16:22:00,
2013-02-22 09:23:00,26.0,9.0,30.06,ENE,77,2.0,3.0,48,0.00,,,0.00,Wunderground v.1.15,2013-02-22 16:23:00,
2013-02-22 09:25:00,25.8,9.7,30.06,NE,56,3.0,6.0,50,0.00,,,0.00,Wunderground v.1.15,2013-02-22 16:25:00,
2013-02-22 09:28:00,25.2,9.6,30.06,ESE,103,3.0,6.0,51,0.00,,,0.00,Wunderground v.1.15,2013-02-22 16:28:00,
2013-02-22 09:29:00,25.1,9.9,30.06,ENE,75,3.0,6.0,52,0.00,,,0.00,Wunderground v.1.15,2013-02-22 16:29:00,
2013-02-22 09:31:00,25.2,10.4,30.06,NNE,16,3.0,5.0,53,0.00,,,0.00,Wunderground v.1.15,2013-02-22 16:31:00,
2013-02-22 09:35:00,25.2,10.0,30.06,North,357,3.0,5.0,52,0.00,,,0.00,Wunderground v.1.15,2013-02-22 16:35:00,
2013-02-22 09:36:00,25.2,10.0,30.06,ENE,67,3.0,5.0,52,0.00,,,0.00,Wunderground v.1.15,2013-02-22 16:36:00,
2013-02-22 09:37:00,25.2,10.4,30.06,ENE,60,3.0,5.0,53,0.00,,,0.00,Wunderground v.1.15,2013-02-22 16:37:00,
2013-02-22 09:39:00,25.3,10.1,30.06,East,89,3.0,5.0,52,0.00,,,0.00,Wunderground v.1.15,2013-02-22 16:39:00,
2013-02-22 09:41:00,25.3,10.1,30.06,NE,42,3.0,5.0,52,0.00,,,0.00,Wunderground v.1.15,2013-02-22 16:41:00,
2013-02-22 09:42:00,25.3,10.1,30.06,NNE,19,3.0,5.0,52,0.00,,,0.00,Wunderground v.1.15,2013-02-22 16:42:00,
2013-02-22 09:43:00,25.3,9.7,30.06,East,90,4.0,5.0,51,0.00,,,0.00,Wunderground v.1.15,2013-02-22 16:43:00,
2013-02-22 09:47:00,25.6,9.5,30.06,NE,51,4.0,5.0,50,0.00,,,0.00,Wunderground v.1.15,2013-02-22 16:47:00,
2013-02-22 09:49:00,25.6,9.5,30.06,NE,47,4.0,7.0,50,0.00,,,0.00,Wunderground v.1.15,2013-02-22 16:49:00,
2013-02-22 09:51:00,25.4,9.8,30.06,NE,54,4.0,10.0,51,0.00,,,0.00,Wunderground v.1.15,2013-02-22 16:51:00,
2013-02-22 09:54:00,25.3,10.1,30.06,NNW,339,5.0,10.0,52,0.00,,,0.00,Wunderground v.1.15,2013-02-22 16:54:00,
2013-02-22 09:55:00,25.4,10.6,30.06,East,89,5.0,10.0,53,0.00,,,0.00,Wunderground v.1.15,2013-02-22 16:55:00,
2013-02-22 09:56:00,25.5,10.7,30.06,ENE,65,5.0,10.0,53,0.00,,,0.00,Wunderground v.1.15,2013-02-22 16:56:00,
2013-02-22 09:59:00,25.4,10.2,30.06,NE,53,6.0,10.0,52,0.00,,,0.00,Wunderground v.1.15,2013-02-22 16:59:00,
2013-02-22 10:00:00,25.3,10.5,30.06,ENE,58,6.0,6.0,53,0.00,,,0.00,Wunderground v.1.15,2013-02-22 17:00:00,
2013-02-22 10:06:00,25.5,11.1,30.06,East,85,6.0,7.0,54,0.00,,,0.00,Wunderground v.1.15,2013-02-22 17:06:00,
2013-02-22 10:07:00,25.5,10.3,30.06,ENE,64,5.0,7.0,52,0.00,,,0.00,Wunderground v.1.15,2013-02-22 17:07:00,
2013-02-22 10:09:00,25.7,10.5,30.06,ESE,117,5.0,7.0,52,0.00,,,0.00,Wunderground v.1.15,2013-02-22 17:09:00,
2013-02-22 10:11:00,26.0,11.2,30.06,ENE,77,4.0,7.0,53,0.00,,,0.00,Wunderground v.1.15,2013-02-22 17:11:00,
2013-02-22 10:12:00,26.2,11.4,30.06,ENE,58,4.0,7.0,53,0.00,,,0.00,Wunderground v.1.15,2013-02-22 17:12:00,
2013-02-22 10:16:00,25.7,11.7,30.06,ENE,65,5.0,7.0,55,0.00,,,0.00,Wunderground v.1.15,2013-02-22 17:16:00,
2013-02-22 10:17:00,25.7,11.7,30.06,East,83,4.0,7.0,55,0.00,,,0.00,Wunderground v.1.15,2013-02-22 17:17:00,
2013-02-22 10:20:00,25.8,12.2,30.06,ENE,58,5.0,5.0,56,0.00,,,0.00,Wunderground v.1.15,2013-02-22 17:20:00,
2013-02-22 10:23:00,26.3,13.5,30.06,ESE,112,5.0,5.0,58,0.00,,,0.00,Wunderground v.1.15,2013-02-22 17:23:00,
2013-02-22 10:24:00,26.6,13.8,30.06,ESE,108,5.0,5.0,58,0.00,,,0.00,Wunderground v.1.15,2013-02-22 17:24:00,
2013-02-22 10:27:00,27.0,13.0,30.06,ESE,102,4.0,5.0,55,0.00,,,0.00,Wunderground v.1.15,2013-02-22 17:27:00,
2013-02-22 10:30:00,27.0,12.5,30.06,NE,52,4.0,7.0,54,0.00,,,0.00,Wunderground v.1.15,2013-02-22 17:30:00,
2013-02-22 10:33:00,26.7,13.1,30.06,ENE,76,4.0,7.0,56,0.00,,,0.00,Wunderground v.1.15,2013-02-22 17:33:00,
2013-02-22 10:34:00,26.6,12.2,30.06,East,79,4.0,8.0,54,0.00,,,0.00,Wunderground v.1.15,2013-02-22 17:34:00,
2013-02-22 10:36:00,26.5,12.1,30.06,ESE,104,5.0,8.0,54,0.00,,,0.00,Wunderground v.1.15,2013-02-22 17:36:00,
2013-02-22 10:37:00,26.6,12.2,30.06,ENE,65,5.0,8.0,54,0.00,,,0.00,Wunderground v.1.15,2013-02-22 17:37:00,
2013-02-22 10:43:00,26.7,12.3,30.06,ENE,58,5.0,7.0,54,0.00,,,0.00,Wunderground v.1.15,2013-02-22 17:43:00,
2013-02-22 10:45:00,26.7,11.8,30.06,ESE,108,5.0,8.0,53,0.00,,,0.00,Wunderground v.1.15,2013-02-22 17:45:00,
2013-02-22 10:46:00,26.8,11.9,30.06,ENE,58,5.0,8.0,53,0.00,,,0.00,Wunderground v.1.15,2013-02-22 17:46:00,
2013-02-22 10:49:00,26.9,11.6,30.07,East,89,5.0,8.0,52,0.00,,,0.00,Wunderground v.1.15,2013-02-22 17:49:00,
2013-02-22 10:52:00,26.9,11.2,30.07,ESE,112,5.0,8.0,51,0.00,,,0.00,Wunderground v.1.15,2013-02-22 17:52:00,
2013-02-22 10:54:00,26.7,11.4,30.06,ESE,104,5.0,8.0,52,0.00,,,0.00,Wunderground v.1.15,2013-02-22 17:54:00,
2013-02-22 10:56:00,26.5,11.7,30.06,ENE,64,5.0,8.0,53,0.00,,,0.00,Wunderground v.1.15,2013-02-22 17:56:00,
2013-02-22 10:58:00,26.6,11.7,30.06,ENE,66,5.0,8.0,53,0.00,,,0.00,Wunderground v.1.15,2013-02-22 17:58:00,
2013-02-22 10:59:00,26.7,12.3,30.06,ESE,103,5.0,8.0,54,0.00,,,0.00,Wunderground v.1.15,2013-02-22 17:59:00,
2013-02-22 11:00:00,26.8,12.8,30.06,East,87,6.0,7.0,55,0.00,,,0.00,Wunderground v.1.15,2013-02-22 18:00:00,
2013-02-22 11:05:00,27.1,12.6,30.06,ESE,112,5.0,8.0,54,0.00,,,0.00,Wunderground v.1.15,2013-02-22 18:05:00,
2013-02-22 11:07:00,27.3,13.2,30.06,NE,56,6.0,8.0,55,0.00,,,0.00,Wunderground v.1.15,2013-02-22 18:07:00,
2013-02-22 11:08:00,27.3,13.7,30.06,NE,41,6.0,8.0,56,0.00,,,0.00,Wunderground v.1.15,2013-02-22 18:08:00,
2013-02-22 11:09:00,27.2,13.1,30.06,East,86,6.0,8.0,55,0.00,,,0.00,Wunderground v.1.15,2013-02-22 18:09:00,
2013-02-22 11:11:00,27.2,13.1,30.06,East,81,6.0,6.0,55,0.00,,,0.00,Wunderground v.1.15,2013-02-22 18:11:00,
2013-02-22 11:13:00,27.3,13.2,30.06,ENE,60,6.0,6.0,55,0.00,,,0.00,Wunderground v.1.15,2013-02-22 18:13:00,
2013-02-22 11:15:00,27.6,13.9,30.06,ENE,58,5.0,6.0,56,0.00,,,0.00,Wunderground v.1.15,2013-02-22 18:15:00,
2013-02-22 11:16:00,27.7,13.2,30.06,East,94,5.0,6.0,54,0.00,,,0.00,Wunderground v.1.15,2013-02-22 18:16:00,
2013-02-22 11:18:00,27.8,12.9,30.06,East,86,4.0,6.0,53,0.00,,,0.00,Wunderground v.1.15,2013-02-22 18:18:00,
2013-02-22 11:20:00,28.1,14.0,30.06,NE,56,4.0,5.0,55,0.00,,,0.00,Wunderground v.1.15,2013-02-22 18:20:00,
2013-02-22 11:24:00,28.2,13.7,30.06,ENE,76,3.0,6.0,54,0.00,,,0.00,Wunderground v.1.15,2013-02-22 18:24:00,
2013-02-22 11:25:00,28.2,13.7,30.06,ENE,64,4.0,6.0,54,0.00,,,0.00,Wunderground v.1.15,2013-02-22 18:25:00,
2013-02-22 11:28:00,28.4,13.9,30.06,NE,52,3.0,6.0,54,0.00,,,0.00,Wunderground v.1.15,2013-02-22 18:28:00,
2013-02-22 11:29:00,28.3,13.3,30.06,ESE,121,3.0,6.0,53,0.00,,,0.00,Wunderground v.1.15,2013-02-22 18:29:00,
2013-02-22 11:33:00,28.6,14.9,30.06,SE,130,3.0,3.0,56,0.00,,,0.00,Wunderground v.1.15,2013-02-22 18:33:00,
2013-02-22 11:34:00,28.9,15.2,30.06,East,84,3.0,3.0,56,0.00,,,0.00,Wunderground v.1.15,2013-02-22 18:34:00,
2013-02-22 11:36:00,29.0,14.4,30.06,ENE,57,3.0,4.0,54,0.00,,,0.00,Wunderground v.1.15,2013-02-22 18:36:00,
2013-02-22 11:39:00,28.9,14.3,30.06,East,98,3.0,6.0,54,0.00,,,0.00,Wunderground v.1.15,2013-02-22 18:39:00,
2013-02-22 11:40:00,28.9,14.3,30.06,East,91,3.0,3.0,54,0.00,,,0.00,Wunderground v.1.15,2013-02-22 18:40:00,
2013-02-22 11:44:00,28.7,14.6,30.06,NW,315,3.0,4.0,55,0.00,,,0.00,Wunderground v.1.15,2013-02-22 18:44:00,
2013-02-22 11:47:00,28.4,13.0,30.06,NE,40,3.0,4.0,52,0.00,,,0.00,Wunderground v.1.15,2013-02-22 18:47:00,
2013-02-22 11:50:00,28.1,13.1,30.06,ENE,74,3.0,3.0,53,0.00,,,0.00,Wunderground v.1.15,2013-02-22 18:50:00,
2013-02-22 11:51:00,28.1,13.1,30.06,East,91,3.0,4.0,53,0.00,,,0.00,Wunderground v.1.15,2013-02-22 18:51:00,
2013-02-22 11:53:00,27.8,12.9,30.06,ESE,108,3.0,6.0,53,0.00,,,0.00,Wunderground v.1.15,2013-02-22 18:53:00,
2013-02-22 11:54:00,27.8,12.9,30.06,East,98,3.0,8.0,53,0.00,,,0.00,Wunderground v.1.15,2013-02-22 18:54:00,
2013-02-22 11:57:00,27.5,13.4,30.06,ESE,111,4.0,10.0,55,0.00,,,0.00,Wunderground v.1.15,2013-02-22 18:57:00,
2013-02-22 12:00:00,27.2,12.7,30.05,East,84,5.0,5.0,54,0.00,,,0.00,Wunderground v.1.15,2013-02-22 19:00:00,
2013-02-22 12:03:00,27.1,13.9,30.05,ENE,77,5.0,8.0,57,0.00,,,0.00,Wunderground v.1.15,2013-02-22 19:03:00,
2013-02-22 12:08:00,27.2,14.0,30.05,East,82,4.0,8.0,57,0.00,,,0.00,Wunderground v.1.15,2013-02-22 19:08:00,
2013-02-22 12:09:00,27.1,13.5,30.05,ESE,108,4.0,8.0,56,0.00,,,0.00,Wunderground v.1.15,2013-02-22 19:09:00,
2013-02-22 12:12:00,27.0,14.2,30.05,SE,129,4.0,5.0,58,0.00,,,0.00,Wunderground v.1.15,2013-02-22 19:12:00,
2013-02-22 12:14:00,27.1,14.3,30.05,ENE,58,4.0,8.0,58,0.00,,,0.00,Wunderground v.1.15,2013-02-22 19:14:00,
2013-02-22 12:15:00,27.0,13.8,30.05,NE,49,4.0,8.0,57,0.00,,,0.00,Wunderground v.1.15,2013-02-22 19:15:00,
2013-02-22 12:18:00,26.7,13.5,30.05,ENE,58,4.0,8.0,57,0.00,,,0.00,Wunderground v.1.15,2013-02-22 19:18:00,
2013-02-22 12:21:00,26.5,13.7,30.04,ESE,102,4.0,7.0,58,0.00,,,0.00,Wunderground v.1.15,2013-02-22 19:21:00,
2013-02-22 12:24:00,26.5,14.5,30.05,East,79,4.0,7.0,60,0.00,,,0.00,Wunderground v.1.15,2013-02-22 19:24:00,
2013-02-22 12:26:00,26.4,14.0,30.05,SE,145,4.0,8.0,59,0.00,,,0.00,Wunderground v.1.15,2013-02-22 19:26:00,
2013-02-22 12:28:00,26.3,14.3,30.05,ENE,64,5.0,8.0,60,0.00,,,0.00,Wunderground v.1.15,2013-02-22 19:28:00,
2013-02-22 12:33:00,26.2,13.8,30.04,East,79,5.0,7.0,59,0.00,,,0.00,Wunderground v.1.15,2013-02-22 19:33:00,
2013-02-22 12:34:00,26.1,14.1,30.04,NE,47,5.0,7.0,60,0.00,,,0.00,Wunderground v.1.15,2013-02-22 19:34:00,
2013-02-22 12:35:00,26.1,14.1,30.04,NNE,30,5.0,7.0,60,0.00,,,0.00,Wunderground v.1.15,2013-02-22 19:35:00,
2013-02-22 12:38:00,25.8,14.2,30.04,ENE,67,5.0,7.0,61,0.00,,,0.00,Wunderground v.1.15,2013-02-22 19:38:00,
2013-02-22 12:39:00,25.7,14.5,30.04,ENE,72,5.0,7.0,62,0.00,,,0.00,Wunderground v.1.15,2013-02-22 19:39:00,
2013-02-22 12:44:00,25.4,15.3,30.04,NE,56,5.0,8.0,65,0.00,,,0.00,Wunderground v.1.15,2013-02-22 19:44:00,
2013-02-22 12:45:00,25.4,14.9,30.04,East,79,5.0,8.0,64,0.00,,,0.00,Wunderground v.1.15,2013-02-22 19:45:00,
2013-02-22 12:46:00,25.4,15.3,30.04,ENE,77,5.0,8.0,65,0.00,,,0.00,Wunderground v.1.15,2013-02-22 19:46:00,
2013-02-22 12:48:00,25.4,15.6,30.04,ENE,77,5.0,8.0,66,0.00,,,0.00,Wunderground v.1.15,2013-02-22 19:48:00,
2013-02-22 12:51:00,25.0,15.2,30.04,ENE,57,4.0,8.0,66,0.00,,,0.00,Wunderground v.1.15,2013-02-22 19:51:00,
2013-02-22 12:54:00,24.7,15.6,30.04,East,79,5.0,8.0,68,0.00,,,0.00,Wunderground v.1.15,2013-02-22 19:54:00,
2013-02-22 12:55:00,24.7,15.6,30.04,East,79,5.0,8.0,68,0.00,,,0.00,Wunderground v.1.15,2013-02-22 19:55:00,
2013-02-22 12:56:00,24.6,15.5,30.04,East,96,5.0,8.0,68,0.00,,,0.00,Wunderground v.1.15,2013-02-22 19:56:00,
2013-02-22 12:57:00,24.5,15.4,30.04,East,79,5.0,8.0,68,0.00,,,0.00,Wunderground v.1.15,2013-02-22 19:57:00,
2013-02-22 13:00:00,24.2,15.5,30.04,ENE,74,5.0,5.0,69,0.00,,,0.00,Wunderground v.1.15,2013-02-22 20:00:00,
2013-02-22 13:03:00,24.0,15.6,30.04,ENE,73,5.0,9.0,70,0.00,,,0.00,Wunderground v.1.15,2013-02-22 20:03:00,
2013-02-22 13:04:00,23.9,15.5,30.04,NE,50,5.0,9.0,70,0.00,,,0.00,Wunderground v.1.15,2013-02-22 20:04:00,
2013-02-22 13:07:00,23.9,15.9,30.04,East,80,5.0,9.0,71,0.00,,,0.00,Wunderground v.1.15,2013-02-22 20:07:00,
2013-02-22 13:09:00,24.1,16.4,30.04,East,88,5.0,9.0,72,0.00,,,0.00,Wunderground v.1.15,2013-02-22 20:09:00,
2013-02-22 13:12:00,24.3,16.2,30.03,NE,56,4.0,9.0,71,0.00,,,0.00,Wunderground v.1.15,2013-02-22 20:12:00,
2013-02-22 13:13:00,24.3,15.9,30.03,ENE,72,4.0,9.0,70,0.00,,,0.00,Wunderground v.1.15,2013-02-22 20:13:00,
2013-02-22 13:16:00,24.1,16.1,30.04,ENE,77,4.0,9.0,71,0.00,,,0.00,Wunderground v.1.15,2013-02-22 20:16:00,
2013-02-22 13:17:00,24.0,16.0,30.03,ENE,69,4.0,9.0,71,0.00,,,0.00,Wunderground v.1.15,2013-02-22 20:17:00,
2013-02-22 13:18:00,24.0,16.0,30.04,ENE,72,5.0,9.0,71,0.00,,,0.00,Wunderground v.1.15,2013-02-22 20:18:00,
2013-02-22 13:23:00,23.7,15.7,30.04,NE,49,5.0,7.0,71,0.00,,,0.00,Wunderground v.1.15,2013-02-22 20:23:00,
2013-02-22 13:24:00,23.8,16.1,30.04,ENE,58,4.0,7.0,72,0.00,,,0.00,Wunderground v.1.15,2013-02-22 20:24:00,
2013-02-22 13:25:00,23.8,16.1,30.04,ENE,67,4.0,7.0,72,0.00,,,0.00,Wunderground v.1.15,2013-02-22 20:25:00,
2013-02-22 13:26:00,23.8,16.1,30.04,ENE,64,4.0,7.0,72,0.00,,,0.00,Wunderground v.1.15,2013-02-22 20:26:00,
2013-02-22 13:30:00,24.0,16.3,30.03,ENE,60,4.0,5.0,72,0.00,,,0.00,Wunderground v.1.15,2013-02-22 20:30:00,
2013-02-22 13:33:00,24.2,15.8,30.03,East,79,3.0,5.0,70,0.00,,,0.00,Wunderground v.1.15,2013-02-22 20:33:00,
2013-02-22 13:39:00,24.3,16.2,30.03,ENE,67,3.0,5.0,71,0.00,,,0.00,Wunderground v.1.15,2013-02-22 20:39:00,
2013-02-22 13:40:00,24.4,16.3,30.03,East,80,3.0,3.0,71,0.00,,,0.00,Wunderground v.1.15,2013-02-22 20:40:00,
2013-02-22 13:43:00,24.6,16.2,30.03,NE,49,3.0,5.0,70,0.00,,,0.00,Wunderground v.1.15,2013-02-22 20:43:00,
2013-02-22 13:45:00,24.7,16.3,30.03,NNE,18,3.0,5.0,70,0.00,,,0.00,Wunderground v.1.15,2013-02-22 20:45:00,
2013-02-22 13:46:00,24.8,16.7,30.03,NNE,22,3.0,5.0,71,0.00,,,0.00,Wunderground v.1.15,2013-02-22 20:46:00,
2013-02-22 13:51:00,24.8,16.1,30.03,NE,45,4.0,5.0,69,0.00,,,0.00,Wunderground v.1.15,2013-02-22 20:51:00,
2013-02-22 13:53:00,24.8,15.7,30.03,ENE,72,4.0,5.0,68,0.00,,,0.00,Wunderground v.1.15,2013-02-22 20:53:00,
2013-02-22 13:54:00,24.8,15.7,30.03,ENE,63,4.0,6.0,68,0.00,,,0.00,Wunderground v.1.15,2013-02-22 20:54:00,
2013-02-22 13:55:00,24.7,15.6,30.03,NE,47,4.0,6.0,68,0.00,,,0.00,Wunderground v.1.15,2013-02-22 20:55:00,
2013-02-22 13:57:00,24.5,15.4,30.03,ENE,70,4.0,6.0,68,0.00,,,0.00,Wunderground v.1.15,2013-02-22 20:57:00,
2013-02-22 14:00:00,24.6,15.5,30.03,NE,51,4.0,4.0,68,0.00,,,0.00,Wunderground v.1.15,2013-02-22 21:00:00,
2013-02-22 14:01:00,24.6,15.5,30.03,NE,54,4.0,5.0,68,0.00,,,0.00,Wunderground v.1.15,2013-02-22 21:01:00,
2013-02-22 14:03:00,24.6,15.5,30.03,ENE,63,4.0,5.0,68,0.00,,,0.00,Wunderground v.1.15,2013-02-22 21:03:00,
2013-02-22 14:05:00,24.8,16.1,30.03,NE,56,3.0,5.0,69,0.00,,,0.00,Wunderground v.1.15,2013-02-22 21:05:00,
2013-02-22 14:07:00,25.0,15.9,30.03,ESE,118,3.0,5.0,68,0.00,,,0.00,Wunderground v.1.15,2013-02-22 21:07:00,
2013-02-22 14:09:00,25.1,16.0,30.03,East,84,3.0,5.0,68,0.00,,,0.00,Wunderground v.1.15,2013-02-22 21:09:00,
2013-02-22 14:11:00,25.0,15.9,30.03,East,80,2.0,3.0,68,0.00,,,0.00,Wunderground v.1.15,2013-02-22 21:11:00,
2013-02-22 14:13:00,25.0,16.3,30.03,ESE,120,3.0,6.0,69,0.00,,,0.00,Wunderground v.1.15,2013-02-22 21:13:00,
2013-02-22 14:16:00,24.6,15.9,30.03,ESE,105,4.0,6.0,69,0.00,,,0.00,Wunderground v.1.15,2013-02-22 21:16:00,
2013-02-22 14:19:00,24.5,15.8,30.03,NE,56,4.0,6.0,69,0.00,,,0.00,Wunderground v.1.15,2013-02-22 21:19:00,
2013-02-22 14:22:00,24.5,16.4,30.03,NE,37,4.0,4.0,71,0.00,,,0.00,Wunderground v.1.15,2013-02-22 21:22:00,
2013-02-22 14:23:00,24.6,16.5,30.03,NE,54,4.0,8.0,71,0.00,,,0.00,Wunderground v.1.15,2013-02-22 21:23:00,
2013-02-22 14:28:00,24.4,16.0,30.03,East,83,5.0,8.0,70,0.00,,,0.00,Wunderground v.1.15,2013-02-22 21:28:00,
2013-02-22 14:29:00,24.5,16.4,30.03,NE,53,4.0,8.0,71,0.00,,,0.00,Wunderground v.1.15,2013-02-22 21:29:00,
2013-02-22 14:31:00,24.6,16.2,30.03,ENE,62,4.0,5.0,70,0.00,,,0.00,Wunderground v.1.15,2013-02-22 21:31:00,
2013-02-22 14:35:00,24.5,16.1,30.03,ENE,63,4.0,7.0,70,0.00,,,0.00,Wunderground v.1.15,2013-02-22 21:35:00,
2013-02-22 14:36:00,24.7,16.3,30.03,ENE,58,4.0,7.0,70,0.00,,,0.00,Wunderground v.1.15,2013-02-22 21:36:00,
2013-02-22 14:39:00,24.8,16.4,30.03,NE,50,5.0,7.0,70,0.00,,,0.00,Wunderground v.1.15,2013-02-22 21:39:00,
2013-02-22 14:40:00,24.9,16.5,30.03,North,352,5.0,5.0,70,0.00,,,0.00,Wunderground v.1.15,2013-02-22 21:40:00,
2013-02-22 14:43:00,25.1,16.4,30.03,East,80,4.0,5.0,69,0.00,,,0.00,Wunderground v.1.15,2013-02-22 21:43:00,
2013-02-22 14:45:00,25.4,17.0,30.03,ENE,71,4.0,5.0,70,0.00,,,0.00,Wunderground v.1.15,2013-02-22 21:45:00,
2013-02-22 14:50:00,25.7,16.3,30.03,NE,56,3.0,3.0,67,0.00,,,0.00,Wunderground v.1.15,2013-02-22 21:50:00,
2013-02-22 14:51:00,25.7,16.3,30.03,NE,45,3.0,3.0,67,0.00,,,0.00,Wunderground v.1.15,2013-02-22 21:51:00,
2013-02-22 14:52:00,25.8,16.7,30.03,ESE,118,3.0,4.0,68,0.00,,,0.00,Wunderground v.1.15,2013-02-22 21:52:00,
2013-02-22 14:56:00,26.4,16.6,30.03,ENE,72,3.0,6.0,66,0.00,,,0.00,Wunderground v.1.15,2013-02-22 21:56:00,
2013-02-22 14:57:00,26.6,16.8,30.03,ENE,76,3.0,6.0,66,0.00,,,0.00,Wunderground v.1.15,2013-02-22 21:57:00,
2013-02-22 15:00:00,27.0,17.5,30.03,ENE,75,3.0,6.0,67,0.00,,,0.00,Wunderground v.1.15,2013-02-22 22:00:00,
2013-02-22 15:03:00,26.8,16.6,30.02,NE,35,4.0,8.0,65,0.00,,,0.00,Wunderground v.1.15,2013-02-22 22:03:00,
2013-02-22 15:05:00,26.8,17.0,30.02,ESE,108,5.0,8.0,66,0.00,,,0.00,Wunderground v.1.15,2013-02-22 22:05:00,
2013-02-22 15:07:00,27.2,17.3,30.02,East,81,4.0,8.0,66,0.00,,,0.00,Wunderground v.1.15,2013-02-22 22:07:00,
2013-02-22 15:10:00,27.5,16.9,30.02,East,99,4.0,4.0,64,0.00,,,0.00,Wunderground v.1.15,2013-02-22 22:10:00,
2013-02-22 15:12:00,27.6,17.0,30.02,ENE,67,4.0,4.0,64,0.00,,,0.00,Wunderground v.1.15,2013-02-22 22:12:00,
2013-02-22 15:13:00,27.7,17.1,30.02,ENE,57,4.0,4.0,64,0.00,,,0.00,Wunderground v.1.15,2013-02-22 22:13:00,
2013-02-22 15:19:00,28.3,16.2,30.02,ENE,72,3.0,4.0,60,0.00,,,0.00,Wunderground v.1.15,2013-02-22 22:19:00,
2013-02-22 15:20:00,28.5,16.4,30.02,East,98,3.0,3.0,60,0.00,,,0.00,Wunderground v.1.15,2013-02-22 22:20:00,
2013-02-22 15:21:00,28.5,16.0,30.02,ENE,67,3.0,3.0,59,0.00,,,0.00,Wunderground v.1.15,2013-02-22 22:21:00,
2013-02-22 15:25:00,28.4,15.5,30.01,West,278,2.0,3.0,58,0.00,,,0.00,Wunderground v.1.15,2013-02-22 22:25:00,
2013-02-22 15:26:00,28.5,15.6,30.01,West,281,2.0,3.0,58,0.00,,,0.00,Wunderground v.1.15,2013-02-22 22:26:00,
2013-02-22 15:31:00,28.6,14.9,30.01,East,91,2.0,6.0,56,0.00,,,0.00,Wunderground v.1.15,2013-02-22 22:31:00,
2013-02-22 15:33:00,29.0,13.6,30.01,West,270,2.0,6.0,52,0.00,,,0.00,Wunderground v.1.15,2013-02-22 22:33:00,
2013-02-22 15:37:00,28.7,6.8,30.01,WNW,294,3.0,9.0,39,0.00,,,0.00,Wunderground v.1.15,2013-02-22 22:37:00,
2013-02-22 15:39:00,28.8,6.9,30.01,SSW,203,4.0,10.0,39,0.00,,,0.00,Wunderground v.1.15,2013-02-22 22:39:00,
2013-02-22 15:41:00,28.7,6.3,30.01,SW,231,5.0,5.0,38,0.00,,,0.00,Wunderground v.1.15,2013-02-22 22:41:00,
2013-02-22 15:46:00,28.8,3.9,30.01,WSW,246,5.0,10.0,34,0.00,,,0.00,Wunderground v.1.15,2013-02-22 22:46:00,
2013-02-22 15:47:00,28.6,3.1,30.01,WSW,253,5.0,10.0,33,0.00,,,0.00,Wunderground v.1.15,2013-02-22 22:47:00,
2013-02-22 15:52:00,28.0,3.2,30.01,West,280,6.0,8.0,34,0.00,,,0.00,Wunderground v.1.15,2013-02-22 22:52:00,
2013-02-22 15:53:00,28.0,4.4,30.01,SW,231,7.0,8.0,36,0.00,,,0.00,Wunderground v.1.15,2013-02-22 22:53:00,
2013-02-22 15:58:00,28.1,3.9,30.02,West,275,7.0,10.0,35,0.00,,,0.00,Wunderground v.1.15,2013-02-22 22:58:00,
2013-02-22 15:59:00,28.1,3.9,30.02,NNE,16,7.0,10.0,35,0.00,,,0.00,Wunderground v.1.15,2013-02-22 22:59:00,
2013-02-22 16:00:00,28.3,3.5,30.02,SW,221,6.0,6.0,34,0.00,,,0.00,Wunderground v.1.15,2013-02-22 23:00:00,
2013-02-22 16:01:00,28.3,4.1,30.02,WNW,288,5.0,6.0,35,0.00,,,0.00,Wunderground v.1.15,2013-02-22 23:01:00,
2013-02-22 16:05:00,28.3,3.5,30.02,SW,232,5.0,6.0,34,0.00,,,0.00,Wunderground v.1.15,2013-02-22 23:05:00,
2013-02-22 16:07:00,28.2,3.4,30.02,WNW,288,4.0,6.0,34,0.00,,,0.00,Wunderground v.1.15,2013-02-22 23:07:00,
2013-02-22 16:11:00,27.8,1.7,30.01,NW,322,5.0,8.0,32,0.00,,,0.00,Wunderground v.1.15,2013-02-22 23:11:00,
2013-02-22 16:12:00,27.8,2.4,30.01,West,269,5.0,8.0,33,0.00,,,0.00,Wunderground v.1.15,2013-02-22 23:12:00,
2013-02-22 16:18:00,27.4,2.0,30.02,WNW,285,7.0,13.0,33,0.00,,,0.00,Wunderground v.1.15,2013-02-22 23:18:00,
2013-02-22 16:19:00,27.2,1.8,30.02,WNW,286,7.0,13.0,33,0.00,,,0.00,Wunderground v.1.15,2013-02-22 23:19:00,
2013-02-22 16:24:00,26.9,2.2,30.02,West,274,8.0,10.0,34,0.00,,,0.00,Wunderground v.1.15,2013-02-22 23:24:00,
2013-02-22 16:25:00,26.9,2.2,30.02,WSW,252,7.0,10.0,34,0.00,,,0.00,Wunderground v.1.15,2013-02-22 23:25:00,
2013-02-22 16:26:00,26.9,2.2,30.02,SW,226,7.0,10.0,34,0.00,,,0.00,Wunderground v.1.15,2013-02-22 23:26:00,
2013-02-22 16:30:00,26.8,0.8,30.02,West,270,6.0,11.0,32,0.00,,,0.00,Wunderground v.1.15,2013-02-22 23:30:00,
2013-02-22 16:31:00,26.7,1.4,30.02,West,278,7.0,11.0,33,0.00,,,0.00,Wunderground v.1.15,2013-02-22 23:31:00,
2013-02-22 16:32:00,26.5,0.6,30.02,West,276,7.0,11.0,32,0.00,,,0.00,Wunderground v.1.15,2013-02-22 23:32:00,
2013-02-22 16:37:00,26.3,1.0,30.02,West,262,8.0,11.0,33,0.00,,,0.00,Wunderground v.1.15,2013-02-22 23:37:00,
2013-02-22 16:38:00,26.3,1.0,30.02,West,277,8.0,11.0,33,0.00,,,0.00,Wunderground v.1.15,2013-02-22 23:38:00,
2013-02-22 16:39:00,26.1,0.9,30.02,West,263,8.0,11.0,33,0.00,,,0.00,Wunderground v.1.15,2013-02-22 23:39:00,
2013-02-22 16:45:00,26.1,0.9,30.02,WNW,285,7.0,10.0,33,0.00,,,0.00,Wunderground v.1.15,2013-02-22 23:45:00,
2013-02-22 16:46:00,26.1,0.9,30.01,West,270,7.0,10.0,33,0.00,,,0.00,Wunderground v.1.15,2013-02-22 23:46:00,
2013-02-22 16:49:00,26.3,1.0,30.01,West,262,6.0,10.0,33,0.00,,,0.00,Wunderground v.1.15,2013-02-22 23:49:00,
2013-02-22 16:52:00,26.3,-0.3,30.01,West,267,6.0,16.0,31,0.00,,,0.00,Wunderground v.1.15,2013-02-22 23:52:00,
2013-02-22 16:56:00,26.1,-0.5,30.01,NW,316,6.0,16.0,31,0.00,,,0.00,Wunderground v.1.15,2013-02-22 23:56:00,
2013-02-22 16:58:00,26.1,0.2,30.01,West,279,6.0,16.0,32,0.00,,,0.00,Wunderground v.1.15,2013-02-22 23:58:00,
2013-02-22 16:59:00,26.2,0.3,30.01,SW,233,6.0,16.0,32,0.00,,,0.00,Wunderground v.1.15,2013-02-22 23:59:00,
2013-02-22 17:03:00,26.2,-0.4,30.01,WSW,256,5.0,6.0,31,0.00,,,0.00,Wunderground v.1.15,2013-02-23 00:03:00,
2013-02-22 17:04:00,26.2,-0.4,30.01,WSW,257,5.0,6.0,31,0.00,,,0.00,Wunderground v.1.15,2013-02-23 00:04:00,
2013-02-22 17:05:00,26.3,-0.3,30.01,SW,218,5.0,6.0,31,0.00,,,0.00,Wunderground v.1.15,2013-02-23 00:05:00,
2013-02-22 17:10:00,26.5,1.2,30.01,WSW,248,4.0,4.0,33,0.00,,,0.00,Wunderground v.1.15,2013-02-23 00:10:00,
2013-02-22 17:11:00,26.6,0.7,30.01,WNW,287,4.0,4.0,32,0.00,,,0.00,Wunderground v.1.15,2013-02-23 00:11:00,
2013-02-22 17:13:00,26.4,-0.2,30.01,WSW,257,4.0,8.0,31,0.00,,,0.00,Wunderground v.1.15,2013-02-23 00:13:00,
2013-02-22 17:14:00,26.2,-0.4,30.01,West,262,4.0,8.0,31,0.00,,,0.00,Wunderground v.1.15,2013-02-23 00:14:00,
2013-02-22 17:16:00,25.9,-1.3,30.01,SW,236,4.0,8.0,30,0.00,,,0.00,Wunderground v.1.15,2013-02-23 00:16:00,
2013-02-22 17:18:00,25.6,-1.6,30.01,West,278,4.0,8.0,30,0.00,,,0.00,Wunderground v.1.15,2013-02-23 00:18:00,
2013-02-22 17:20:00,25.4,-1.1,30.02,WNW,290,5.0,5.0,31,0.00,,,0.00,Wunderground v.1.15,2013-02-23 00:20:00,
2013-02-22 17:22:00,25.2,-1.3,30.02,SSW,210,5.0,5.0,31,0.00,,,0.00,Wunderground v.1.15,2013-02-23 00:22:00,
2013-02-22 17:23:00,25.1,-1.3,30.01,WNW,302,5.0,5.0,31,0.00,,,0.00,Wunderground v.1.15,2013-02-23 00:23:00,
2013-02-22 17:27:00,24.8,-1.6,30.02,West,278,5.0,8.0,31,0.00,,,0.00,Wunderground v.1.15,2013-02-23 00:27:00,
2013-02-22 17:28:00,24.7,-2.4,30.02,WNW,292,5.0,8.0,30,0.00,,,0.00,Wunderground v.1.15,2013-02-23 00:28:00,
2013-02-22 17:29:00,24.6,-1.8,30.02,West,267,5.0,8.0,31,0.00,,,0.00,Wunderground v.1.15,2013-02-23 00:29:00,
2013-02-22 17:30:00,24.6,-2.5,30.02,West,264,4.0,15.0,30,0.00,,,0.00,Wunderground v.1.15,2013-02-23 00:30:00,
2013-02-22 17:34:00,24.3,-2.7,30.02,WSW,257,7.0,17.0,30,0.00,,,0.00,Wunderground v.1.15,2013-02-23 00:34:00,
2013-02-22 17:36:00,24.2,-2.8,30.02,WSW,255,8.0,17.0,30,0.00,,,0.00,Wunderground v.1.15,2013-02-23 00:36:00,
2013-02-22 17:37:00,24.2,-2.8,30.02,WNW,288,7.0,17.0,30,0.00,,,0.00,Wunderground v.1.15,2013-02-23 00:37:00,
2013-02-22 17:41:00,24.0,-2.3,30.02,WSW,258,8.0,13.0,31,0.00,,,0.00,Wunderground v.1.15,2013-02-23 00:41:00,
2013-02-22 17:42:00,24.0,-2.3,30.02,West,262,8.0,13.0,31,0.00,,,0.00,Wunderground v.1.15,2013-02-23 00:42:00,
2013-02-22 17:45:00,23.9,-2.4,30.02,West,269,7.0,14.0,31,0.00,,,0.00,Wunderground v.1.15,2013-02-23 00:45:00,
2013-02-22 17:46:00,23.8,-2.5,30.02,WSW,255,7.0,14.0,31,0.00,,,0.00,Wunderground v.1.15,2013-02-23 00:46:00,
2013-02-22 17:49:00,23.8,-2.5,30.02,West,266,9.0,14.0,31,0.00,,,0.00,Wunderground v.1.15,2013-02-23 00:49:00,
2013-02-22 17:50:00,23.8,-2.5,30.02,West,259,9.0,9.0,31,0.00,,,0.00,Wunderground v.1.15,2013-02-23 00:50:00,
2013-02-22 17:55:00,23.7,-2.6,30.02,West,264,11.0,18.0,31,0.00,,,0.00,Wunderground v.1.15,2013-02-23 00:55:00,
2013-02-22 17:56:00,23.6,-2.7,30.02,WNW,294,11.0,18.0,31,0.00,,,0.00,Wunderground v.1.15,2013-02-23 00:56:00,
2013-02-22 17:57:00,23.6,-2.7,30.02,West,269,11.0,18.0,31,0.00,,,0.00,Wunderground v.1.15,2013-02-23 00:57:00,
2013-02-22 17:59:00,23.5,-2.1,30.02,West,277,10.0,18.0,32,0.00,,,0.00,Wunderground v.1.15,2013-02-23 00:59:00,
2013-02-22 18:02:00,23.4,-2.8,30.03,West,281,10.0,12.0,31,0.00,,,0.00,Wunderground v.1.15,2013-02-23 01:02:00,
2013-02-22 18:05:00,23.3,-2.9,30.03,West,277,9.0,12.0,31,0.00,,,0.00,Wunderground v.1.15,2013-02-23 01:05:00,
2013-02-22 18:06:00,23.2,-3.0,30.03,West,274,9.0,12.0,31,0.00,,,0.00,Wunderground v.1.15,2013-02-23 01:06:00,
2013-02-22 18:08:00,23.1,-2.4,30.03,WSW,246,9.0,12.0,32,0.00,,,0.00,Wunderground v.1.15,2013-02-23 01:08:00,
2013-02-22 18:12:00,22.9,-2.6,30.03,WSW,255,9.0,9.0,32,0.00,,,0.00,Wunderground v.1.15,2013-02-23 01:12:00,
2013-02-22 18:14:00,22.8,-2.1,30.04,WNW,294,8.0,13.0,33,0.00,,,0.00,Wunderground v.1.15,2013-02-23 01:14:00,
2013-02-22 18:15:00,22.7,-2.8,30.04,WSW,240,8.0,13.0,32,0.00,,,0.00,Wunderground v.1.15,2013-02-23 01:15:00,
2013-02-22 18:17:00,22.7,-2.1,30.04,West,270,7.0,13.0,33,0.00,,,0.00,Wunderground v.1.15,2013-02-23 01:17:00,
2013-02-22 18:19:00,22.7,-2.8,30.04,WSW,257,8.0,13.0,32,0.00,,,0.00,Wunderground v.1.15,2013-02-23 01:19:00,
2013-02-22 18:20:00,22.7,-2.1,30.04,WSW,246,8.0,8.0,33,0.00,,,0.00,Wunderground v.1.15,2013-02-23 01:20:00,
2013-02-22 18:25:00,22.5,-3.0,30.05,West,273,8.0,13.0,32,0.00,,,0.00,Wunderground v.1.15,2013-02-23 01:25:00,
2013-02-22 18:26:00,22.5,-3.0,30.04,WNW,298,9.0,13.0,32,0.00,,,0.00,Wunderground v.1.15,2013-02-23 01:26:00,
2013-02-22 18:28:00,22.4,-3.1,30.05,WSW,243,10.0,14.0,32,0.00,,,0.00,Wunderground v.1.15,2013-02-23 01:28:00,
2013-02-22 18:32:00,22.2,-2.6,30.05,West,260,10.0,11.0,33,0.00,,,0.00,Wunderground v.1.15,2013-02-23 01:32:00,
2013-02-22 18:36:00,22.1,-2.0,30.05,WSW,245,9.0,11.0,34,0.00,,,0.00,Wunderground v.1.15,2013-02-23 01:36:00,
2013-02-22 18:37:00,22.1,-2.0,30.05,WNW,283,9.0,11.0,34,0.00,,,0.00,Wunderground v.1.15,2013-02-23 01:37:00,
2013-02-22 18:38:00,22.0,-2.1,30.05,WNW,294,8.0,11.0,34,0.00,,,0.00,Wunderground v.1.15,2013-02-23 01:38:00,
2013-02-22 18:41:00,21.9,-2.2,30.05,West,260,10.0,10.0,34,0.00,,,0.00,Wunderground v.1.15,2013-02-23 01:41:00,
2013-02-22 18:44:00,21.8,-1.7,30.06,SW,235,10.0,18.0,35,0.00,,,0.00,Wunderground v.1.15,2013-02-23 01:44:00,
2013-02-22 18:47:00,21.7,-1.8,30.06,SW,225,10.0,18.0,35,0.00,,,0.00,Wunderground v.1.15,2013-02-23 01:47:00,
2013-02-22 18:48:00,21.6,-1.9,30.06,WSW,250,10.0,18.0,35,0.00,,,0.00,Wunderground v.1.15,2013-02-23 01:48:00,
2013-02-22 18:50:00,21.5,-1.4,30.06,SSW,194,10.0,10.0,36,0.00,,,0.00,Wunderground v.1.15,2013-02-23 01:50:00,
2013-02-22 18:55:00,21.3,-1.6,30.05,West,259,11.0,20.0,36,0.00,,,0.00,Wunderground v.1.15,2013-02-23 01:55:00,
2013-02-22 18:57:00,21.2,-1.1,30.06,WNW,291,11.0,20.0,37,0.00,,,0.00,Wunderground v.1.15,2013-02-23 01:57:00,
2013-02-22 18:59:00,21.1,-1.2,30.06,WNW,288,13.0,20.0,37,0.00,,,0.00,Wunderground v.1.15,2013-02-23 01:59:00,
2013-02-22 19:00:00,21.0,-1.2,30.06,WSW,243,14.0,14.0,37,0.00,,,0.00,Wunderground v.1.15,2013-02-23 02:00:00,
2013-02-22 19:03:00,20.9,-0.8,30.06,WNW,283,14.0,14.0,38,0.00,,,0.00,Wunderground v.1.15,2013-02-23 02:03:00,
2013-02-22 19:04:00,20.9,-0.8,30.06,West,277,13.0,14.0,38,0.00,,,0.00,Wunderground v.1.15,2013-02-23 02:04:00,
2013-02-22 19:07:00,20.7,-0.4,30.06,West,274,12.0,21.0,39,0.00,,,0.00,Wunderground v.1.15,2013-02-23 02:07:00,
2013-02-22 19:11:00,20.6,-0.5,30.06,West,262,11.0,16.0,39,0.00,,,0.00,Wunderground v.1.15,2013-02-23 02:11:00,
2013-02-22 19:14:00,20.5,0.0,30.06,West,266,11.0,16.0,40,0.00,,,0.00,Wunderground v.1.15,2013-02-23 02:14:00,
2013-02-22 19:17:00,20.5,-0.6,30.06,West,267,11.0,16.0,39,0.00,,,0.00,Wunderground v.1.15,2013-02-23 02:17:00,
2013-02-22 19:18:00,20.5,0.0,30.06,West,261,11.0,16.0,40,0.00,,,0.00,Wunderground v.1.15,2013-02-23 02:18:00,
2013-02-22 19:21:00,20.5,-0.6,30.06,West,278,12.0,12.0,39,0.00,,,0.00,Wunderground v.1.15,2013-02-23 02:21:00,
2013-02-22 19:23:00,20.5,-0.6,30.06,WSW,257,12.0,12.0,39,0.00,,,0.00,Wunderground v.1.15,2013-02-23 02:23:00,
2013-02-22 19:26:00,20.4,-0.7,30.05,WSW,240,10.0,12.0,39,0.00,,,0.00,Wunderground v.1.15,2013-02-23 02:26:00,
2013-02-22 19:30:00,20.4,-1.2,30.06,West,269,9.0,15.0,38,0.00,,,0.00,Wunderground v.1.15,2013-02-23 02:30:00,
2013-02-22 19:32:00,20.5,-1.1,30.05,West,275,9.0,15.0,38,0.00,,,0.00,Wunderground v.1.15,2013-02-23 02:32:00,
2013-02-22 19:33:00,20.5,-1.1,30.05,West,271,9.0,15.0,38,0.00,,,0.00,Wunderground v.1.15,2013-02-23 02:33:00,
2013-02-22 19:38:00,20.5,-1.1,30.05,WNW,293,11.0,17.0,38,0.00,,,0.00,Wunderground v.1.15,2013-02-23 02:38:00,
2013-02-22 19:41:00,20.4,-1.2,30.05,West,259,10.0,11.0,38,0.00,,,0.00,Wunderground v.1.15,2013-02-23 02:41:00,
2013-02-22 19:44:00,20.4,-1.2,30.06,West,276,11.0,16.0,38,0.00,,,0.00,Wunderground v.1.15,2013-02-23 02:44:00,
2013-02-22 19:45:00,20.4,-1.2,30.05,WSW,253,11.0,16.0,38,0.00,,,0.00,Wunderground v.1.15,2013-02-23 02:45:00,
2013-02-22 19:47:00,20.3,-1.3,30.05,SSW,207,11.0,17.0,38,0.00,,,0.00,Wunderground v.1.15,2013-02-23 02:47:00,
2013-02-22 19:52:00,20.3,-1.3,30.05,WSW,253,13.0,16.0,38,0.00,,,0.00,Wunderground v.1.15,2013-02-23 02:52:00,
2013-02-22 19:54:00,20.2,-0.8,30.05,SSW,207,13.0,16.0,39,0.00,,,0.00,Wunderground v.1.15,2013-02-23 02:54:00,
2013-02-22 19:59:00,20.1,-0.9,30.05,WSW,256,13.0,23.0,39,0.00,,,0.00,Wunderground v.1.15,2013-02-23 02:59:00,
2013-02-22 20:01:00,20.1,-0.9,30.06,SSW,204,12.0,14.0,39,0.00,,,0.00,Wunderground v.1.15,2013-02-23 03:01:00,
2013-02-22 20:04:00,20.1,-0.9,30.05,SW,225,12.0,14.0,39,0.00,,,0.00,Wunderground v.1.15,2013-02-23 03:04:00,
2013-02-22 20:06:00,20.1,-0.9,30.05,WSW,248,12.0,14.0,39,0.00,,,0.00,Wunderground v.1.15,2013-02-23 03:06:00,
2013-02-22 20:07:00,20.1,-0.4,30.06,West,272,12.0,14.0,40,0.00,,,0.00,Wunderground v.1.15,2013-02-23 03:07:00,
2013-02-22 20:10:00,20.0,-0.5,30.05,WSW,243,11.0,13.0,40,0.00,,,0.00,Wunderground v.1.15,2013-02-23 03:10:00,
2013-02-22 20:12:00,20.0,-0.5,30.05,WSW,256,11.0,13.0,40,0.00,,,0.00,Wunderground v.1.15,2013-02-23 03:12:00,
2013-02-22 20:16:00,20.0,-0.5,30.05,West,271,10.0,13.0,40,0.00,,,0.00,Wunderground v.1.15,2013-02-23 03:16:00,
2013-02-22 20:18:00,20.0,-0.5,30.05,WSW,246,9.0,13.0,40,0.00,,,0.00,Wunderground v.1.15,2013-02-23 03:18:00,
2013-02-22 20:20:00,20.0,-1.0,30.05,WSW,255,9.0,9.0,39,0.00,,,0.00,Wunderground v.1.15,2013-02-23 03:20:00,
2013-02-22 20:22:00,20.0,-1.0,30.05,WSW,256,8.0,9.0,39,0.00,,,0.00,Wunderground v.1.15,2013-02-23 03:22:00,
2013-02-22 20:24:00,20.1,-0.9,30.05,SSW,211,8.0,9.0,39,0.00,,,0.00,Wunderground v.1.15,2013-02-23 03:24:00,
2013-02-22 20:27:00,19.9,-0.1,30.04,SW,228,6.0,9.0,41,0.00,,,0.00,Wunderground v.1.15,2013-02-23 03:27:00,
2013-02-22 20:29:00,19.8,-0.1,30.04,SW,231,6.0,9.0,41,0.00,,,0.00,Wunderground v.1.15,2013-02-23 03:29:00,
2013-02-22 20:33:00,19.7,-0.8,30.04,SW,222,5.0,12.0,40,0.00,,,0.00,Wunderground v.1.15,2013-02-23 03:33:00,
2013-02-22 20:34:00,19.6,-0.9,30.04,West,272,5.0,12.0,40,0.00,,,0.00,Wunderground v.1.15,2013-02-23 03:34:00,
2013-02-22 20:35:00,19.6,-0.9,30.04,SW,232,5.0,12.0,40,0.00,,,0.00,Wunderground v.1.15,2013-02-23 03:35:00,
2013-02-22 20:38:00,19.6,-0.9,30.03,WNW,294,5.0,12.0,40,0.00,,,0.00,Wunderground v.1.15,2013-02-23 03:38:00,
2013-02-22 20:41:00,19.8,-0.7,30.03,West,263,7.0,11.0,40,0.00,,,0.00,Wunderground v.1.15,2013-02-23 03:41:00,
2013-02-22 20:45:00,19.7,-0.8,30.03,West,271,7.0,11.0,40,0.00,,,0.00,Wunderground v.1.15,2013-02-23 03:45:00,
2013-02-22 20:47:00,19.8,-0.7,30.03,West,277,8.0,11.0,40,0.00,,,0.00,Wunderground v.1.15,2013-02-23 03:47:00,
2013-02-22 20:51:00,19.8,-0.7,30.03,WNW,288,7.0,23.0,40,0.00,,,0.00,Wunderground v.1.15,2013-02-23 03:51:00,
2013-02-22 20:52:00,19.8,-0.7,30.03,West,278,7.0,23.0,40,0.00,,,0.00,Wunderground v.1.15,2013-02-23 03:52:00,
2013-02-22 20:56:00,19.6,0.2,30.03,SW,236,9.0,23.0,42,0.00,,,0.00,Wunderground v.1.15,2013-02-23 03:56:00,
2013-02-22 20:57:00,19.4,0.0,30.04,WNW,285,9.0,23.0,42,0.00,,,0.00,Wunderground v.1.15,2013-02-23 03:57:00,
2013-02-22 21:03:00,19.0,0.6,30.03,WSW,242,11.0,14.0,44,0.00,,,0.00,Wunderground v.1.15,2013-02-23 04:03:00,
2013-02-22 21:04:00,18.9,0.5,30.03,SSW,208,11.0,14.0,44,0.00,,,0.00,Wunderground v.1.15,2013-02-23 04:04:00,
2013-02-22 21:05:00,18.9,0.5,30.03,SW,225,11.0,14.0,44,0.00,,,0.00,Wunderground v.1.15,2013-02-23 04:05:00,
2013-02-22 21:10:00,18.9,0.1,30.03,SSW,210,11.0,11.0,43,0.00,,,0.00,Wunderground v.1.15,2013-02-23 04:10:00,
2013-02-22 21:12:00,18.9,0.1,30.03,SSW,207,9.0,11.0,43,0.00,,,0.00,Wunderground v.1.15,2013-02-23 04:12:00,
2013-02-22 21:14:00,18.9,0.1,30.03,West,269,9.0,11.0,43,0.00,,,0.00,Wunderground v.1.15,2013-02-23 04:14:00,
2013-02-22 21:16:00,19.0,-0.4,30.03,West,280,9.0,11.0,42,0.00,,,0.00,Wunderground v.1.15,2013-02-23 04:16:00,
2013-02-22 21:20:00,19.2,-0.2,30.03,WNW,293,9.0,9.0,42,0.00,,,0.00,Wunderground v.1.15,2013-02-23 04:20:00,
2013-02-22 21:24:00,19.4,-0.5,30.03,SW,236,10.0,10.0,41,0.00,,,0.00,Wunderground v.1.15,2013-02-23 04:24:00,
2013-02-22 21:25:00,19.5,-0.4,30.03,West,276,10.0,12.0,41,0.00,,,0.00,Wunderground v.1.15,2013-02-23 04:25:00,
2013-02-22 21:30:00,19.6,-0.9,30.03,WSW,249,11.0,11.0,40,0.00,,,0.00,Wunderground v.1.15,2013-02-23 04:30:00,
2013-02-22 21:31:00,19.6,-0.9,30.03,WSW,257,11.0,11.0,40,0.00,,,0.00,Wunderground v.1.15,2013-02-23 04:31:00,
2013-02-22 21:32:00,19.6,-0.9,30.03,SW,225,11.0,11.0,40,0.00,,,0.00,Wunderground v.1.15,2013-02-23 04:32:00,
2013-02-22 21:37:00,19.5,-0.4,30.03,West,276,10.0,17.0,41,0.00,,,0.00,Wunderground v.1.15,2013-02-23 04:37:00,
2013-02-22 21:40:00,19.5,-0.4,30.03,WSW,249,9.0,11.0,41,0.00,,,0.00,Wunderground v.1.15,2013-02-23 04:40:00,
2013-02-22 21:41:00,19.5,-0.4,30.03,SW,224,9.0,11.0,41,0.00,,,0.00,Wunderground v.1.15,2013-02-23 04:41:00,
2013-02-22 21:47:00,19.5,-0.9,30.03,WSW,240,11.0,17.0,40,0.00,,,0.00,Wunderground v.1.15,2013-02-23 04:47:00,
2013-02-22 21:48:00,19.5,-0.9,30.03,SW,224,11.0,17.0,40,0.00,,,0.00,Wunderground v.1.15,2013-02-23 04:48:00,
2013-02-22 21:49:00,19.5,-0.9,30.02,West,280,11.0,18.0,40,0.00,,,0.00,Wunderground v.1.15,2013-02-23 04:49:00,
2013-02-22 21:53:00,19.6,-0.9,30.02,SW,228,12.0,18.0,40,0.00,,,0.00,Wunderground v.1.15,2013-02-23 04:53:00,
2013-02-22 21:56:00,19.5,-0.4,30.03,West,259,11.0,18.0,41,0.00,,,0.00,Wunderground v.1.15,2013-02-23 04:56:00,
2013-02-22 21:57:00,19.5,-0.4,30.02,WNW,288,11.0,18.0,41,0.00,,,0.00,Wunderground v.1.15,2013-02-23 04:57:00,
2013-02-22 22:00:00,19.4,-0.5,30.02,West,265,12.0,12.0,41,0.00,,,0.00,Wunderground v.1.15,2013-02-23 05:00:00,
2013-02-22 22:01:00,19.4,-0.5,30.02,SW,217,12.0,12.0,41,0.00,,,0.00,Wunderground v.1.15,2013-02-23 05:01:00,
2013-02-22 22:03:00,19.3,-0.1,30.03,West,278,11.0,12.0,42,0.00,,,0.00,Wunderground v.1.15,2013-02-23 05:03:00,
2013-02-22 22:06:00,19.1,1.2,30.02,SSE,160,10.0,12.0,45,0.00,,,0.00,Wunderground v.1.15,2013-02-23 05:06:00,
2013-02-22 22:09:00,18.9,0.5,30.02,WSW,243,10.0,13.0,44,0.00,,,0.00,Wunderground v.1.15,2013-02-23 05:09:00,
2013-02-22 22:12:00,19.0,0.1,30.02,WSW,239,10.0,13.0,43,0.00,,,0.00,Wunderground v.1.15,2013-02-23 05:12:00,
2013-02-22 22:15:00,19.0,-0.4,30.02,West,271,12.0,13.0,42,0.00,,,0.00,Wunderground v.1.15,2013-02-23 05:15:00,
2013-02-22 22:18:00,19.1,-0.3,30.01,WNW,283,12.0,18.0,42,0.00,,,0.00,Wunderground v.1.15,2013-02-23 05:18:00,
2013-02-22 22:20:00,19.1,-0.3,30.01,WNW,288,12.0,12.0,42,0.00,,,0.00,Wunderground v.1.15,2013-02-23 05:20:00,
2013-02-22 22:23:00,19.1,-0.3,30.01,West,271,12.0,12.0,42,0.00,,,0.00,Wunderground v.1.15,2013-02-23 05:23:00,
2013-02-22 22:28:00,19.3,-0.6,30.01,WNW,285,12.0,14.0,41,0.00,,,0.00,Wunderground v.1.15,2013-02-23 05:28:00,
2013-02-22 22:30:00,19.4,-0.5,30.01,SW,223,13.0,20.0,41,0.00,,,0.00,Wunderground v.1.15,2013-02-23 05:30:00,
2013-02-22 22:34:00,19.5,-0.4,30.01,West,259,13.0,20.0,41,0.00,,,0.00,Wunderground v.1.15,2013-02-23 05:34:00,
2013-02-22 22:36:00,19.5,-0.4,30.00,West,270,13.0,20.0,41,0.00,,,0.00,Wunderground v.1.15,2013-02-23 05:36:00,
2013-02-22 22:38:00,19.6,-0.9,30.00,WSW,249,12.0,20.0,40,0.00,,,0.00,Wunderground v.1.15,2013-02-23 05:38:00,
2013-02-22 22:40:00,19.7,-0.8,30.00,West,272,11.0,11.0,40,0.00,,,0.00,Wunderground v.1.15,2013-02-23 05:40:00,
2013-02-22 22:42:00,19.8,-0.1,30.00,West,273,12.0,20.0,41,0.00,,,0.00,Wunderground v.1.15,2013-02-23 05:42:00,
2013-02-22 22:44:00,19.8,-0.1,30.00,WSW,256,13.0,20.0,41,0.00,,,0.00,Wunderground v.1.15,2013-02-23 05:44:00,
2013-02-22 22:46:00,19.8,-0.1,30.00,West,278,13.0,20.0,41,0.00,,,0.00,Wunderground v.1.15,2013-02-23 05:46:00,
2013-02-22 22:48:00,19.8,-0.1,30.00,WNW,284,14.0,20.0,41,0.00,,,0.00,Wunderground v.1.15,2013-02-23 05:48:00,
2013-02-22 22:52:00,19.9,-0.1,29.99,West,271,16.0,22.0,41,0.00,,,0.00,Wunderground v.1.15,2013-02-23 05:52:00,
2013-02-22 22:53:00,19.9,-0.1,29.99,WSW,256,16.0,29.0,41,0.00,,,0.00,Wunderground v.1.15,2013-02-23 05:53:00,
2013-02-22 22:54:00,20.0,0.0,30.00,West,273,17.0,29.0,41,0.00,,,0.00,Wunderground v.1.15,2013-02-23 05:54:00,
2013-02-22 22:57:00,20.0,0.0,30.00,WSW,245,17.0,29.0,41,0.00,,,0.00,Wunderground v.1.15,2013-02-23 05:57:00,
2013-02-22 23:00:00,20.0,0.0,29.99,SW,231,17.0,17.0,41,0.00,,,0.00,Wunderground v.1.15,2013-02-23 06:00:00,
2013-02-22 23:02:00,20.1,-0.4,29.99,West,271,16.0,17.0,40,0.00,,,0.00,Wunderground v.1.15,2013-02-23 06:02:00,
2013-02-22 23:04:00,20.3,-0.8,29.99,West,273,15.0,17.0,39,0.00,,,0.00,Wunderground v.1.15,2013-02-23 06:04:00,
2013-02-22 23:08:00,20.3,-0.8,30.00,WNW,283,15.0,22.0,39,0.00,,,0.00,Wunderground v.1.15,2013-02-23 06:08:00,
2013-02-22 23:09:00,20.3,-0.8,30.00,West,274,15.0,16.0,39,0.00,,,0.00,Wunderground v.1.15,2013-02-23 06:09:00,
2013-02-22 23:10:00,20.4,-0.7,30.00,West,264,15.0,16.0,39,0.00,,,0.00,Wunderground v.1.15,2013-02-23 06:10:00,
2013-02-22 23:16:00,20.0,0.0,29.99,SW,218,13.0,18.0,41,0.00,,,0.00,Wunderground v.1.15,2013-02-23 06:16:00,
2013-02-22 23:18:00,19.9,-0.1,30.00,WSW,240,13.0,21.0,41,0.00,,,0.00,Wunderground v.1.15,2013-02-23 06:18:00,
2013-02-22 23:20:00,19.8,0.4,29.99,West,279,13.0,16.0,42,0.00,,,0.00,Wunderground v.1.15,2013-02-23 06:20:00,
2013-02-22 23:25:00,19.6,0.2,29.99,WNW,294,14.0,19.0,42,0.00,,,0.00,Wunderground v.1.15,2013-02-23 06:25:00,
2013-02-22 23:26:00,19.6,0.2,29.98,West,271,14.0,19.0,42,0.00,,,0.00,Wunderground v.1.15,2013-02-23 06:26:00,
2013-02-22 23:31:00,19.4,0.5,29.98,WNW,285,15.0,23.0,43,0.00,,,0.00,Wunderground v.1.15,2013-02-23 06:31:00,
2013-02-22 23:35:00,19.4,1.0,29.97,WSW,245,17.0,23.0,44,0.00,,,0.00,Wunderground v.1.15,2013-02-23 06:35:00,
2013-02-22 23:36:00,19.4,1.0,29.98,SW,218,16.0,23.0,44,0.00,,,0.00,Wunderground v.1.15,2013-02-23 06:36:00,
2013-02-22 23:38:00,19.4,0.5,29.97,WNW,283,16.0,23.0,43,0.00,,,0.00,Wunderground v.1.15,2013-02-23 06:38:00,
2013-02-22 23:42:00,19.4,0.5,29.97,West,260,15.0,27.0,43,0.00,,,0.00,Wunderground v.1.15,2013-02-23 06:42:00,
2013-02-22 23:44:00,19.3,0.9,29.96,WSW,257,16.0,27.0,44,0.00,,,0.00,Wunderground v.1.15,2013-02-23 06:44:00,
2013-02-22 23:46:00,19.4,0.5,29.97,WSW,243,16.0,27.0,43,0.00,,,0.00,Wunderground v.1.15,2013-02-23 06:46:00,
2013-02-22 23:49:00,19.5,0.6,29.97,West,263,17.0,27.0,43,0.00,,,0.00,Wunderground v.1.15,2013-02-23 06:49:00,
2013-02-22 23:52:00,19.6,0.2,29.96,West,273,17.0,31.0,42,0.00,,,0.00,Wunderground v.1.15,2013-02-23 06:52:00,
2013-02-22 23:54:00,19.6,0.2,29.96,WSW,256,16.0,31.0,42,0.00,,,0.00,Wunderground v.1.15,2013-02-23 06:54:00,
2013-02-22 23:55:00,19.6,0.2,29.96,WNW,283,16.0,31.0,42,0.00,,,0.00,Wunderground v.1.15,2013-02-23 06:55:00,
2013-02-22 23:59:00,19.7,0.3,29.96,WNW,289,14.0,31.0,42,0.00,,,0.00,Wunderground v.1.15,2013-02-23 06:59:00,